2016 Cux-Wetter.de -Die Nutzung der Wetterdaten nur mit ausdrcklicher Genehmigung
Wetterdaten: Freitag, 19.08.2016
Datum Zeit Temp. A. Feuchte A. Luftdruck Regen Wind Richtung Richtung Sonnenschein Solar Taupunkt Windchill Windben
19.08.2016 00:00 13,3 C 94 % 1010,5 hPa 0,0 l/m 0,0 km/h (0 Bft) N-NW 330 0 min 0 W/m 12,4 C 13,3 C 0,0 km/h (0 Bft)
19.08.2016 00:03 13,3 C 94 % 1010,5 hPa 0,0 l/m 0,0 km/h (0 Bft) N-NW 330 0 min 0 W/m 12,4 C 13,3 C 0,0 km/h (0 Bft)
19.08.2016 00:06 13,3 C 94 % 1010,5 hPa 0,0 l/m 0,0 km/h (0 Bft) N-NW 330 0 min 0 W/m 12,4 C 13,3 C 0,0 km/h (0 Bft)
19.08.2016 00:09 13,2 C 93 % 1010,6 hPa 0,0 l/m 0,0 km/h (0 Bft) N-NW 330 0 min 0 W/m 12,1 C 13,2 C 0,0 km/h (0 Bft)
19.08.2016 00:12 13,1 C 93 % 1010,5 hPa 0,0 l/m 0,0 km/h (0 Bft) N-NW 330 0 min 0 W/m 12,0 C 13,1 C 1,6 km/h (1 Bft)
19.08.2016 00:15 13,1 C 94 % 1010,4 hPa 0,0 l/m 0,0 km/h (0 Bft) N-NW 330 0 min 0 W/m 12,2 C 13,1 C 0,0 km/h (0 Bft)
19.08.2016 00:18 13,0 C 93 % 1010,4 hPa 0,0 l/m 0,1 km/h (0 Bft) N-NW 330 0 min 0 W/m 11,9 C 13,0 C 1,6 km/h (1 Bft)
19.08.2016 00:21 12,9 C 93 % 1010,5 hPa 0,0 l/m 0,0 km/h (0 Bft) N-NW 330 0 min 0 W/m 11,8 C 12,9 C 0,0 km/h (0 Bft)
19.08.2016 00:24 12,9 C 94 % 1010,5 hPa 0,0 l/m 0,0 km/h (0 Bft) N-NW 330 0 min 0 W/m 12,0 C 12,9 C 0,0 km/h (0 Bft)
19.08.2016 00:27 13,0 C 94 % 1010,5 hPa 0,0 l/m 0,0 km/h (0 Bft) N-NW 330 0 min 0 W/m 12,1 C 13,0 C 0,0 km/h (0 Bft)
19.08.2016 00:30 13,0 C 94 % 1010,5 hPa 0,0 l/m 0,0 km/h (0 Bft) N-NW 330 0 min 0 W/m 12,1 C 13,0 C 0,0 km/h (0 Bft)
19.08.2016 00:33 13,0 C 94 % 1010,5 hPa 0,0 l/m 0,0 km/h (0 Bft) N-NW 330 0 min 0 W/m 12,1 C 13,0 C 0,0 km/h (0 Bft)
19.08.2016 00:36 13,0 C 94 % 1010,6 hPa 0,0 l/m 0,4 km/h (0 Bft) N-NW 330 0 min 0 W/m 12,1 C 13,0 C 1,6 km/h (1 Bft)
19.08.2016 00:39 12,9 C 93 % 1010,6 hPa 0,0 l/m 1,2 km/h (1 Bft) N-NW 330 0 min 0 W/m 11,8 C 12,9 C 3,2 km/h (1 Bft)
19.08.2016 00:42 12,8 C 93 % 1010,6 hPa 0,0 l/m 0,2 km/h (0 Bft) N-NW 330 0 min 0 W/m 11,7 C 12,8 C 1,6 km/h (1 Bft)
19.08.2016 00:45 12,7 C 93 % 1010,5 hPa 0,0 l/m 0,0 km/h (0 Bft) N-NW 330 0 min 0 W/m 11,6 C 12,7 C 0,0 km/h (0 Bft)
19.08.2016 00:48 12,7 C 94 % 1010,6 hPa 0,0 l/m 0,0 km/h (0 Bft) N-NW 330 0 min 0 W/m 11,8 C 12,7 C 0,0 km/h (0 Bft)
19.08.2016 00:51 12,7 C 94 % 1010,5 hPa 0,0 l/m 0,1 km/h (0 Bft) N-NW 330 0 min 0 W/m 11,8 C 12,7 C 1,6 km/h (1 Bft)
19.08.2016 00:54 12,7 C 94 % 1010,5 hPa 0,0 l/m 0,1 km/h (0 Bft) N-NW 330 0 min 0 W/m 11,8 C 12,7 C 1,6 km/h (1 Bft)
19.08.2016 00:57 12,7 C 94 % 1010,6 hPa 0,0 l/m 0,0 km/h (0 Bft) N-NW 330 0 min 0 W/m 11,8 C 12,7 C 0,0 km/h (0 Bft)
19.08.2016 01:00 12,7 C 94 % 1010,6 hPa 0,0 l/m 0,0 km/h (0 Bft) N-NW 330 0 min 0 W/m 11,8 C 12,7 C 0,0 km/h (0 Bft)
19.08.2016 01:03 12,8 C 94 % 1010,6 hPa 0,0 l/m 0,0 km/h (0 Bft) N-NW 330 0 min 0 W/m 11,9 C 12,8 C 0,0 km/h (0 Bft)
19.08.2016 01:06 12,8 C 94 % 1010,6 hPa 0,0 l/m 0,0 km/h (0 Bft) N-NW 330 0 min 0 W/m 11,9 C 12,8 C 0,0 km/h (0 Bft)
19.08.2016 01:09 12,8 C 95 % 1010,6 hPa 0,0 l/m 0,0 km/h (0 Bft) N-NW 330 0 min 0 W/m 12,0 C 12,8 C 0,0 km/h (0 Bft)
19.08.2016 01:12 12,8 C 95 % 1010,6 hPa 0,0 l/m 0,0 km/h (0 Bft) N-NW 330 0 min 0 W/m 12,0 C 12,8 C 0,0 km/h (0 Bft)
19.08.2016 01:15 12,8 C 94 % 1010,5 hPa 0,0 l/m 0,0 km/h (0 Bft) N-NW 330 0 min 0 W/m 11,9 C 12,8 C 0,0 km/h (0 Bft)
19.08.2016 01:18 12,6 C 94 % 1010,6 hPa 0,0 l/m 0,0 km/h (0 Bft) N-NW 330 0 min 0 W/m 11,7 C 12,6 C 0,0 km/h (0 Bft)
19.08.2016 01:21 12,5 C 94 % 1010,6 hPa 0,0 l/m 0,0 km/h (0 Bft) N-NW 330 0 min 0 W/m 11,6 C 12,5 C 0,0 km/h (0 Bft)
19.08.2016 01:24 12,4 C 94 % 1010,5 hPa 0,0 l/m 0,0 km/h (0 Bft) N-NW 330 0 min 0 W/m 11,5 C 12,4 C 0,0 km/h (0 Bft)
19.08.2016 01:27 12,3 C 94 % 1010,5 hPa 0,0 l/m 0,0 km/h (0 Bft) N-NW 330 0 min 0 W/m 11,4 C 12,3 C 0,0 km/h (0 Bft)
19.08.2016 01:30 12,2 C 94 % 1010,5 hPa 0,0 l/m 0,0 km/h (0 Bft) N-NW 330 0 min 0 W/m 11,3 C 12,2 C 0,0 km/h (0 Bft)
19.08.2016 01:33 12,1 C 94 % 1010,6 hPa 0,0 l/m 1,4 km/h (1 Bft) N-NW 330 0 min 0 W/m 11,2 C 12,1 C 3,2 km/h (1 Bft)
19.08.2016 01:36 12,1 C 94 % 1010,5 hPa 0,0 l/m 1,3 km/h (1 Bft) N-NW 330 0 min 0 W/m 11,2 C 12,1 C 3,2 km/h (1 Bft)
19.08.2016 01:39 12,1 C 94 % 1010,5 hPa 0,0 l/m 1,3 km/h (1 Bft) N-NW 330 0 min 0 W/m 11,2 C 12,1 C 3,2 km/h (1 Bft)
19.08.2016 01:42 12,1 C 94 % 1010,5 hPa 0,0 l/m 2,8 km/h (1 Bft) N-NW 330 0 min 0 W/m 11,2 C 12,1 C 3,2 km/h (1 Bft)
19.08.2016 01:45 11,9 C 94 % 1010,5 hPa 0,0 l/m 2,0 km/h (1 Bft) N-NW 330 0 min 0 W/m 11,0 C 11,9 C 3,2 km/h (1 Bft)
19.08.2016 01:48 11,9 C 94 % 1010,6 hPa 0,0 l/m 2,1 km/h (1 Bft) N-NW 330 0 min 0 W/m 11,0 C 11,9 C 3,2 km/h (1 Bft)
19.08.2016 01:51 12,0 C 94 % 1010,5 hPa 0,0 l/m 0,2 km/h (0 Bft) N-NW 330 0 min 0 W/m 11,1 C 12,0 C 1,6 km/h (1 Bft)
19.08.2016 01:54 12,0 C 94 % 1010,5 hPa 0,0 l/m 0,2 km/h (0 Bft) N-NW 330 0 min 0 W/m 11,1 C 12,0 C 1,6 km/h (1 Bft)
19.08.2016 01:57 12,0 C 95 % 1010,4 hPa 0,0 l/m 1,0 km/h (0 Bft) N-NW 330 0 min 0 W/m 11,2 C 12,0 C 1,6 km/h (1 Bft)
19.08.2016 02:00 12,0 C 95 % 1010,4 hPa 0,0 l/m 0,2 km/h (0 Bft) N-NW 330 0 min 0 W/m 11,2 C 12,0 C 1,6 km/h (1 Bft)
19.08.2016 02:03 11,8 C 94 % 1010,4 hPa 0,0 l/m 0,2 km/h (0 Bft) N-NW 330 0 min 0 W/m 10,9 C 11,8 C 1,6 km/h (1 Bft)
19.08.2016 02:06 11,8 C 95 % 1010,4 hPa 0,0 l/m 0,8 km/h (0 Bft) N-NW 330 0 min 0 W/m 11,0 C 11,8 C 1,6 km/h (1 Bft)
19.08.2016 02:09 11,8 C 95 % 1010,4 hPa 0,0 l/m 0,2 km/h (0 Bft) N-NW 330 0 min 0 W/m 11,0 C 11,8 C 1,6 km/h (1 Bft)
19.08.2016 02:12 11,8 C 95 % 1010,5 hPa 0,0 l/m 0,1 km/h (0 Bft) N-NW 330 0 min 0 W/m 11,0 C 11,8 C 1,6 km/h (1 Bft)
19.08.2016 02:15 11,9 C 95 % 1010,4 hPa 0,0 l/m 1,5 km/h (1 Bft) N-NW 330 0 min 0 W/m 11,1 C 11,9 C 3,2 km/h (1 Bft)
19.08.2016 02:18 11,8 C 95 % 1010,5 hPa 0,0 l/m 2,2 km/h (1 Bft) N-NW 330 0 min 0 W/m 11,0 C 11,8 C 3,2 km/h (1 Bft)
19.08.2016 02:21 11,7 C 94 % 1010,4 hPa 0,0 l/m 0,9 km/h (0 Bft) N-NW 330 0 min 0 W/m 10,8 C 11,7 C 1,6 km/h (1 Bft)
19.08.2016 02:24 11,6 C 95 % 1010,4 hPa 0,0 l/m 0,1 km/h (0 Bft) N-NW 330 0 min 0 W/m 10,8 C 11,6 C 1,6 km/h (1 Bft)
19.08.2016 02:27 11,6 C 95 % 1010,4 hPa 0,0 l/m 0,0 km/h (0 Bft) N-NW 330 0 min 0 W/m 10,8 C 11,6 C 0,0 km/h (0 Bft)
19.08.2016 02:30 11,7 C 95 % 1010,4 hPa 0,0 l/m 0,0 km/h (0 Bft) N-NW 330 0 min 0 W/m 10,9 C 11,7 C 0,0 km/h (0 Bft)
19.08.2016 02:33 11,7 C 95 % 1010,4 hPa 0,0 l/m 0,0 km/h (0 Bft) N-NW 330 0 min 0 W/m 10,9 C 11,7 C 0,0 km/h (0 Bft)
19.08.2016 02:36 11,8 C 95 % 1010,3 hPa 0,0 l/m 0,0 km/h (0 Bft) N-NW 330 0 min 0 W/m 11,0 C 11,8 C 0,0 km/h (0 Bft)
19.08.2016 02:39 11,8 C 95 % 1010,3 hPa 0,0 l/m 0,0 km/h (0 Bft) N-NW 330 0 min 0 W/m 11,0 C 11,8 C 0,0 km/h (0 Bft)
19.08.2016 02:42 11,8 C 95 % 1010,3 hPa 0,0 l/m 0,0 km/h (0 Bft) N-NW 330 0 min 0 W/m 11,0 C 11,8 C 0,0 km/h (0 Bft)
19.08.2016 02:45 11,7 C 95 % 1010,3 hPa 0,0 l/m 0,0 km/h (0 Bft) N-NW 330 0 min 0 W/m 10,9 C 11,7 C 1,6 km/h (1 Bft)
19.08.2016 02:48 11,6 C 95 % 1010,3 hPa 0,0 l/m 0,0 km/h (0 Bft) N-NW 330 0 min 0 W/m 10,8 C 11,6 C 0,0 km/h (0 Bft)
19.08.2016 02:51 11,5 C 95 % 1010,4 hPa 0,0 l/m 0,0 km/h (0 Bft) N-NW 330 0 min 0 W/m 10,7 C 11,5 C 0,0 km/h (0 Bft)
19.08.2016 02:54 11,5 C 95 % 1010,4 hPa 0,0 l/m 0,0 km/h (0 Bft) N-NW 330 0 min 0 W/m 10,7 C 11,5 C 0,0 km/h (0 Bft)
19.08.2016 02:57 11,6 C 95 % 1010,3 hPa 0,0 l/m 0,0 km/h (0 Bft) N-NW 330 0 min 0 W/m 10,8 C 11,6 C 0,0 km/h (0 Bft)
19.08.2016 03:00 11,5 C 95 % 1010,3 hPa 0,0 l/m 0,0 km/h (0 Bft) N-NW 330 0 min 0 W/m 10,7 C 11,5 C 0,0 km/h (0 Bft)
19.08.2016 03:03 11,5 C 95 % 1010,2 hPa 0,0 l/m 0,0 km/h (0 Bft) N-NW 330 0 min 0 W/m 10,7 C 11,5 C 0,0 km/h (0 Bft)
19.08.2016 03:06 11,6 C 95 % 1010,2 hPa 0,0 l/m 0,0 km/h (0 Bft) N-NW 330 0 min 0 W/m 10,8 C 11,6 C 0,0 km/h (0 Bft)
19.08.2016 03:09 11,6 C 95 % 1010,2 hPa 0,0 l/m 0,0 km/h (0 Bft) N-NW 330 0 min 0 W/m 10,8 C 11,6 C 1,6 km/h (1 Bft)
19.08.2016 03:12 11,4 C 95 % 1010,2 hPa 0,0 l/m 0,0 km/h (0 Bft) N-NW 330 0 min 0 W/m 10,6 C 11,4 C 0,0 km/h (0 Bft)
19.08.2016 03:15 11,1 C 94 % 1010,2 hPa 0,0 l/m 0,0 km/h (0 Bft) N-NW 330 0 min 0 W/m 10,2 C 11,1 C 0,0 km/h (0 Bft)
19.08.2016 03:18 11,1 C 95 % 1010,2 hPa 0,0 l/m 0,0 km/h (0 Bft) N-NW 330 0 min 0 W/m 10,3 C 11,1 C 0,0 km/h (0 Bft)
19.08.2016 03:21 11,1 C 95 % 1010,2 hPa 0,0 l/m 0,0 km/h (0 Bft) N-NW 330 0 min 0 W/m 10,3 C 11,1 C 0,0 km/h (0 Bft)
19.08.2016 03:24 11,2 C 95 % 1010,1 hPa 0,0 l/m 0,0 km/h (0 Bft) N-NW 330 0 min 0 W/m 10,4 C 11,2 C 0,0 km/h (0 Bft)
19.08.2016 03:27 11,2 C 95 % 1010,2 hPa 0,0 l/m 0,0 km/h (0 Bft) N-NW 330 0 min 0 W/m 10,4 C 11,2 C 0,0 km/h (0 Bft)
19.08.2016 03:30 11,2 C 95 % 1010,1 hPa 0,0 l/m 0,0 km/h (0 Bft) N-NW 330 0 min 0 W/m 10,4 C 11,2 C 0,0 km/h (0 Bft)
19.08.2016 03:33 11,3 C 95 % 1010,1 hPa 0,0 l/m 0,0 km/h (0 Bft) N-NW 330 0 min 0 W/m 10,5 C 11,3 C 0,0 km/h (0 Bft)
19.08.2016 03:36 11,3 C 95 % 1010,1 hPa 0,0 l/m 0,0 km/h (0 Bft) N-NW 330 0 min 0 W/m 10,5 C 11,3 C 0,0 km/h (0 Bft)
19.08.2016 03:39 11,3 C 95 % 1010,1 hPa 0,0 l/m 0,0 km/h (0 Bft) N-NW 330 0 min 0 W/m 10,5 C 11,3 C 0,0 km/h (0 Bft)
19.08.2016 03:42 11,3 C 95 % 1010,0 hPa 0,0 l/m 0,0 km/h (0 Bft) N-NW 330 0 min 0 W/m 10,5 C 11,3 C 0,0 km/h (0 Bft)
19.08.2016 03:45 11,3 C 95 % 1010,0 hPa 0,0 l/m 0,0 km/h (0 Bft) N-NW 330 0 min 0 W/m 10,5 C 11,3 C 0,0 km/h (0 Bft)
19.08.2016 03:48 11,3 C 95 % 1010,0 hPa 0,0 l/m 0,0 km/h (0 Bft) N-NW 330 0 min 0 W/m 10,5 C 11,3 C 0,0 km/h (0 Bft)
19.08.2016 03:51 11,3 C 95 % 1010,0 hPa 0,0 l/m 0,0 km/h (0 Bft) N-NW 330 0 min 0 W/m 10,5 C 11,3 C 0,0 km/h (0 Bft)
19.08.2016 03:54 11,2 C 95 % 1010,1 hPa 0,0 l/m 0,0 km/h (0 Bft) N-NW 330 0 min 0 W/m 10,4 C 11,2 C 0,0 km/h (0 Bft)
19.08.2016 03:57 11,1 C 95 % 1010,1 hPa 0,0 l/m 0,0 km/h (0 Bft) N-NW 330 0 min 0 W/m 10,3 C 11,1 C 0,0 km/h (0 Bft)
19.08.2016 04:00 11,1 C 95 % 1010,1 hPa 0,0 l/m 0,0 km/h (0 Bft) N-NW 330 0 min 0 W/m 10,3 C 11,1 C 0,0 km/h (0 Bft)
19.08.2016 04:03 11,1 C 95 % 1010,2 hPa 0,0 l/m 0,0 km/h (0 Bft) N-NW 330 0 min 0 W/m 10,3 C 11,1 C 0,0 km/h (0 Bft)
19.08.2016 04:06 11,0 C 95 % 1010,1 hPa 0,0 l/m 0,0 km/h (0 Bft) N-NW 330 0 min 0 W/m 10,2 C 11,0 C 0,0 km/h (0 Bft)
19.08.2016 04:09 11,1 C 95 % 1010,1 hPa 0,0 l/m 0,0 km/h (0 Bft) N-NW 330 0 min 0 W/m 10,3 C 11,1 C 0,0 km/h (0 Bft)
19.08.2016 04:12 11,1 C 95 % 1010,1 hPa 0,0 l/m 0,0 km/h (0 Bft) N-NW 330 0 min 0 W/m 10,3 C 11,1 C 0,0 km/h (0 Bft)
19.08.2016 04:15 11,1 C 96 % 1010,1 hPa 0,0 l/m 0,0 km/h (0 Bft) N-NW 330 0 min 0 W/m 10,5 C 11,1 C 0,0 km/h (0 Bft)
19.08.2016 04:18 11,1 C 95 % 1010,1 hPa 0,0 l/m 0,0 km/h (0 Bft) N-NW 330 0 min 0 W/m 10,3 C 11,1 C 0,0 km/h (0 Bft)
19.08.2016 04:21 11,0 C 95 % 1010,2 hPa 0,0 l/m 0,0 km/h (0 Bft) N-NW 330 0 min 0 W/m 10,2 C 11,0 C 0,0 km/h (0 Bft)
19.08.2016 04:24 10,8 C 95 % 1010,1 hPa 0,0 l/m 0,0 km/h (0 Bft) N-NW 330 0 min 0 W/m 10,0 C 10,8 C 0,0 km/h (0 Bft)
19.08.2016 04:27 10,8 C 95 % 1010,1 hPa 0,0 l/m 0,0 km/h (0 Bft) N-NW 330 0 min 0 W/m 10,0 C 10,8 C 0,0 km/h (0 Bft)
19.08.2016 04:30 10,8 C 95 % 1010,1 hPa 0,0 l/m 0,0 km/h (0 Bft) N-NW 330 0 min 0 W/m 10,0 C 10,8 C 0,0 km/h (0 Bft)
19.08.2016 04:33 10,8 C 95 % 1010,1 hPa 0,0 l/m 0,0 km/h (0 Bft) N-NW 330 0 min 0 W/m 10,0 C 10,8 C 0,0 km/h (0 Bft)
19.08.2016 04:36 10,8 C 95 % 1010,1 hPa 0,0 l/m 0,0 km/h (0 Bft) N-NW 330 0 min 0 W/m 10,0 C 10,8 C 0,0 km/h (0 Bft)
19.08.2016 04:39 10,9 C 95 % 1010,1 hPa 0,0 l/m 0,0 km/h (0 Bft) N-NW 330 0 min 0 W/m 10,1 C 10,9 C 0,0 km/h (0 Bft)
19.08.2016 04:42 10,9 C 95 % 1010,2 hPa 0,0 l/m 0,0 km/h (0 Bft) N-NW 330 0 min 0 W/m 10,1 C 10,9 C 0,0 km/h (0 Bft)
19.08.2016 04:45 10,9 C 95 % 1010,1 hPa 0,0 l/m 0,0 km/h (0 Bft) N-NW 330 0 min 0 W/m 10,1 C 10,9 C 0,0 km/h (0 Bft)
19.08.2016 04:48 10,9 C 95 % 1010,1 hPa 0,0 l/m 0,0 km/h (0 Bft) N-NW 330 0 min 0 W/m 10,1 C 10,9 C 0,0 km/h (0 Bft)
19.08.2016 04:51 11,1 C 95 % 1010,0 hPa 0,0 l/m 0,0 km/h (0 Bft) N-NW 330 0 min 0 W/m 10,3 C 11,1 C 0,0 km/h (0 Bft)
19.08.2016 04:54 11,1 C 95 % 1010,0 hPa 0,0 l/m 0,0 km/h (0 Bft) N-NW 330 0 min 0 W/m 10,3 C 11,1 C 0,0 km/h (0 Bft)
19.08.2016 04:57 11,2 C 95 % 1010,1 hPa 0,0 l/m 0,0 km/h (0 Bft) N-NW 330 0 min 0 W/m 10,4 C 11,2 C 0,0 km/h (0 Bft)
19.08.2016 05:00 11,2 C 95 % 1010,1 hPa 0,0 l/m 0,0 km/h (0 Bft) N-NW 330 0 min 0 W/m 10,4 C 11,2 C 0,0 km/h (0 Bft)
19.08.2016 05:03 11,2 C 95 % 1010,1 hPa 0,0 l/m 0,0 km/h (0 Bft) N-NW 330 0 min 0 W/m 10,4 C 11,2 C 0,0 km/h (0 Bft)
19.08.2016 05:06 11,2 C 95 % 1010,1 hPa 0,0 l/m 0,0 km/h (0 Bft) N-NW 330 0 min 0 W/m 10,4 C 11,2 C 0,0 km/h (0 Bft)
19.08.2016 05:09 11,2 C 95 % 1010,1 hPa 0,0 l/m 0,0 km/h (0 Bft) N-NW 330 0 min 0 W/m 10,4 C 11,2 C 0,0 km/h (0 Bft)
19.08.2016 05:12 11,1 C 95 % 1010,1 hPa 0,0 l/m 0,0 km/h (0 Bft) N-NW 330 0 min 0 W/m 10,3 C 11,1 C 0,0 km/h (0 Bft)
19.08.2016 05:15 11,1 C 95 % 1010,1 hPa 0,0 l/m 0,0 km/h (0 Bft) N-NW 330 0 min 0 W/m 10,3 C 11,1 C 0,0 km/h (0 Bft)
19.08.2016 05:18 11,1 C 95 % 1010,1 hPa 0,0 l/m 0,0 km/h (0 Bft) N-NW 330 0 min 0 W/m 10,3 C 11,1 C 0,0 km/h (0 Bft)
19.08.2016 05:21 11,0 C 95 % 1010,0 hPa 0,0 l/m 0,0 km/h (0 Bft) N-NW 330 0 min 0 W/m 10,2 C 11,0 C 0,0 km/h (0 Bft)
19.08.2016 05:24 10,9 C 95 % 1010,1 hPa 0,0 l/m 0,0 km/h (0 Bft) N-NW 330 0 min 0 W/m 10,1 C 10,9 C 0,0 km/h (0 Bft)
19.08.2016 05:27 10,9 C 95 % 1010,1 hPa 0,0 l/m 0,0 km/h (0 Bft) N-NW 330 0 min 0 W/m 10,1 C 10,9 C 0,0 km/h (0 Bft)
19.08.2016 05:30 10,9 C 95 % 1010,1 hPa 0,0 l/m 0,0 km/h (0 Bft) N-NW 330 0 min 0 W/m 10,1 C 10,9 C 0,0 km/h (0 Bft)
19.08.2016 05:33 11,0 C 95 % 1010,1 hPa 0,0 l/m 0,0 km/h (0 Bft) N-NW 330 0 min 0 W/m 10,2 C 11,0 C 0,0 km/h (0 Bft)
19.08.2016 05:36 11,1 C 95 % 1010,1 hPa 0,0 l/m 0,0 km/h (0 Bft) N-NW 330 0 min 0 W/m 10,3 C 11,1 C 0,0 km/h (0 Bft)
19.08.2016 05:39 11,1 C 95 % 1010,2 hPa 0,0 l/m 0,0 km/h (0 Bft) SO 134 0 min 0 W/m 10,3 C 11,1 C 0,0 km/h (0 Bft)
19.08.2016 05:42 11,2 C 95 % 1010,1 hPa 0,0 l/m 0,0 km/h (0 Bft) SO 134 0 min 0 W/m 10,4 C 11,2 C 0,0 km/h (0 Bft)
19.08.2016 05:45 11,2 C 95 % 1010,2 hPa 0,0 l/m 0,0 km/h (0 Bft) SO 134 0 min 0 W/m 10,4 C 11,2 C 0,0 km/h (0 Bft)
19.08.2016 05:48 11,2 C 95 % 1010,2 hPa 0,0 l/m 0,0 km/h (0 Bft) SO 136 0 min 0 W/m 10,4 C 11,2 C 0,0 km/h (0 Bft)
19.08.2016 05:51 11,2 C 95 % 1010,2 hPa 0,0 l/m 0,0 km/h (0 Bft) SO 136 0 min 0 W/m 10,4 C 11,2 C 0,0 km/h (0 Bft)
19.08.2016 05:54 11,3 C 95 % 1010,2 hPa 0,0 l/m 0,0 km/h (0 Bft) SO 136 0 min 0 W/m 10,5 C 11,3 C 0,0 km/h (0 Bft)
19.08.2016 05:57 11,3 C 95 % 1010,2 hPa 0,0 l/m 0,0 km/h (0 Bft) SO 136 0 min 0 W/m 10,5 C 11,3 C 0,0 km/h (0 Bft)
19.08.2016 06:00 11,3 C 95 % 1010,3 hPa 0,0 l/m 0,0 km/h (0 Bft) SO 136 0 min 0 W/m 10,5 C 11,3 C 0,0 km/h (0 Bft)
19.08.2016 06:03 11,3 C 95 % 1010,3 hPa 0,0 l/m 0,0 km/h (0 Bft) SO 136 0 min 0 W/m 10,5 C 11,3 C 0,0 km/h (0 Bft)
19.08.2016 06:06 11,4 C 95 % 1010,3 hPa 0,0 l/m 0,0 km/h (0 Bft) SO 136 0 min 0 W/m 10,6 C 11,4 C 0,0 km/h (0 Bft)
19.08.2016 06:09 11,4 C 95 % 1010,3 hPa 0,0 l/m 0,0 km/h (0 Bft) SO 136 0 min 0 W/m 10,6 C 11,4 C 0,0 km/h (0 Bft)
19.08.2016 06:12 11,4 C 95 % 1010,3 hPa 0,0 l/m 0,0 km/h (0 Bft) SO 136 0 min 0 W/m 10,6 C 11,4 C 0,0 km/h (0 Bft)
19.08.2016 06:15 11,3 C 95 % 1010,3 hPa 0,0 l/m 0,0 km/h (0 Bft) SO 136 0 min 0 W/m 10,5 C 11,3 C 0,0 km/h (0 Bft)
19.08.2016 06:18 11,4 C 96 % 1010,3 hPa 0,0 l/m 0,0 km/h (0 Bft) SO 136 0 min 0 W/m 10,8 C 11,4 C 0,0 km/h (0 Bft)
19.08.2016 06:21 11,4 C 95 % 1010,3 hPa 0,0 l/m 0,0 km/h (0 Bft) SO 136 0 min 5 W/m 10,6 C 11,4 C 0,0 km/h (0 Bft)
19.08.2016 06:24 11,3 C 95 % 1010,3 hPa 0,0 l/m 0,0 km/h (0 Bft) SO 136 0 min 5 W/m 10,5 C 11,3 C 0,0 km/h (0 Bft)
19.08.2016 06:27 11,3 C 95 % 1010,3 hPa 0,0 l/m 0,0 km/h (0 Bft) SO 136 0 min 5 W/m 10,5 C 11,3 C 0,0 km/h (0 Bft)
19.08.2016 06:30 11,3 C 95 % 1010,3 hPa 0,0 l/m 0,0 km/h (0 Bft) SO 136 0 min 7 W/m 10,5 C 11,3 C 0,0 km/h (0 Bft)
19.08.2016 06:33 11,4 C 95 % 1010,2 hPa 0,0 l/m 0,0 km/h (0 Bft) SO 136 0 min 7 W/m 10,6 C 11,4 C 0,0 km/h (0 Bft)
19.08.2016 06:36 11,4 C 96 % 1010,3 hPa 0,0 l/m 0,0 km/h (0 Bft) SO 136 0 min 7 W/m 10,8 C 11,4 C 0,0 km/h (0 Bft)
19.08.2016 06:39 11,5 C 95 % 1010,3 hPa 0,0 l/m 0,0 km/h (0 Bft) SO 136 0 min 9 W/m 10,7 C 11,5 C 0,0 km/h (0 Bft)
19.08.2016 06:42 11,5 C 96 % 1010,2 hPa 0,0 l/m 0,0 km/h (0 Bft) SO 136 0 min 9 W/m 10,9 C 11,5 C 0,0 km/h (0 Bft)
19.08.2016 06:45 11,4 C 95 % 1010,3 hPa 0,0 l/m 0,0 km/h (0 Bft) SO 136 0 min 11 W/m 10,6 C 11,4 C 0,0 km/h (0 Bft)
19.08.2016 06:48 11,5 C 96 % 1010,3 hPa 0,0 l/m 0,0 km/h (0 Bft) SO 136 0 min 11 W/m 10,9 C 11,5 C 0,0 km/h (0 Bft)
19.08.2016 06:51 11,5 C 95 % 1010,3 hPa 0,0 l/m 0,0 km/h (0 Bft) SO 136 0 min 12 W/m 10,7 C 11,5 C 0,0 km/h (0 Bft)
19.08.2016 06:54 11,5 C 96 % 1010,3 hPa 0,0 l/m 0,0 km/h (0 Bft) SO 136 0 min 12 W/m 10,9 C 11,5 C 0,0 km/h (0 Bft)
19.08.2016 06:57 11,6 C 96 % 1010,3 hPa 0,0 l/m 0,0 km/h (0 Bft) SO 136 0 min 12 W/m 11,0 C 11,6 C 0,0 km/h (0 Bft)
19.08.2016 07:00 11,6 C 96 % 1010,3 hPa 0,0 l/m 0,0 km/h (0 Bft) SO 136 0 min 12 W/m 11,0 C 11,6 C 0,0 km/h (0 Bft)
19.08.2016 07:03 11,6 C 95 % 1010,3 hPa 0,0 l/m 0,0 km/h (0 Bft) SO 136 0 min 12 W/m 10,8 C 11,6 C 0,0 km/h (0 Bft)
19.08.2016 07:06 11,6 C 96 % 1010,3 hPa 0,0 l/m 0,0 km/h (0 Bft) SO 136 0 min 12 W/m 11,0 C 11,6 C 0,0 km/h (0 Bft)
19.08.2016 07:09 11,7 C 95 % 1010,4 hPa 0,0 l/m 0,0 km/h (0 Bft) SO 136 0 min 14 W/m 10,9 C 11,7 C 0,0 km/h (0 Bft)
19.08.2016 07:12 11,7 C 95 % 1010,4 hPa 0,0 l/m 0,0 km/h (0 Bft) SO 136 0 min 14 W/m 10,9 C 11,7 C 0,0 km/h (0 Bft)
19.08.2016 07:15 11,7 C 95 % 1010,4 hPa 0,0 l/m 0,0 km/h (0 Bft) SO 136 0 min 14 W/m 10,9 C 11,7 C 0,0 km/h (0 Bft)
19.08.2016 07:18 11,7 C 96 % 1010,3 hPa 0,0 l/m 0,0 km/h (0 Bft) SO 136 0 min 14 W/m 11,1 C 11,7 C 0,0 km/h (0 Bft)
19.08.2016 07:21 11,8 C 96 % 1010,3 hPa 0,0 l/m 0,0 km/h (0 Bft) SO 136 0 min 16 W/m 11,2 C 11,8 C 0,0 km/h (0 Bft)
19.08.2016 07:24 11,8 C 96 % 1010,4 hPa 0,0 l/m 0,0 km/h (0 Bft) SO 136 0 min 16 W/m 11,2 C 11,8 C 0,0 km/h (0 Bft)
19.08.2016 07:27 11,8 C 96 % 1010,4 hPa 0,0 l/m 0,0 km/h (0 Bft) SO 136 0 min 19 W/m 11,2 C 11,8 C 0,0 km/h (0 Bft)
19.08.2016 07:30 11,9 C 96 % 1010,4 hPa 0,0 l/m 0,0 km/h (0 Bft) SO 136 0 min 18 W/m 11,3 C 11,9 C 0,0 km/h (0 Bft)
19.08.2016 07:33 11,9 C 96 % 1010,4 hPa 0,0 l/m 0,0 km/h (0 Bft) SO 136 0 min 18 W/m 11,3 C 11,9 C 0,0 km/h (0 Bft)
19.08.2016 07:36 11,9 C 96 % 1010,4 hPa 0,0 l/m 0,0 km/h (0 Bft) SO 136 0 min 18 W/m 11,3 C 11,9 C 0,0 km/h (0 Bft)
19.08.2016 07:39 11,9 C 96 % 1010,4 hPa 0,0 l/m 0,0 km/h (0 Bft) SO 136 0 min 19 W/m 11,3 C 11,9 C 0,0 km/h (0 Bft)
19.08.2016 07:42 11,9 C 96 % 1010,4 hPa 0,0 l/m 0,0 km/h (0 Bft) SO 136 0 min 19 W/m 11,3 C 11,9 C 0,0 km/h (0 Bft)
19.08.2016 07:45 12,0 C 96 % 1010,5 hPa 0,0 l/m 0,0 km/h (0 Bft) SO 136 0 min 19 W/m 11,4 C 12,0 C 0,0 km/h (0 Bft)
19.08.2016 07:48 12,1 C 96 % 1010,5 hPa 0,0 l/m 0,0 km/h (0 Bft) SO 136 0 min 21 W/m 11,5 C 12,1 C 0,0 km/h (0 Bft)
19.08.2016 07:51 12,1 C 96 % 1010,5 hPa 0,0 l/m 0,0 km/h (0 Bft) SO 136 0 min 21 W/m 11,5 C 12,1 C 0,0 km/h (0 Bft)
19.08.2016 07:54 12,1 C 96 % 1010,5 hPa 0,0 l/m 0,0 km/h (0 Bft) SO 136 0 min 21 W/m 11,5 C 12,1 C 0,0 km/h (0 Bft)
19.08.2016 07:57 12,1 C 96 % 1010,5 hPa 0,0 l/m 0,0 km/h (0 Bft) SO 136 0 min 23 W/m 11,5 C 12,1 C 0,0 km/h (0 Bft)
19.08.2016 08:00 12,2 C 96 % 1010,5 hPa 0,0 l/m 0,0 km/h (0 Bft) SO 137 0 min 23 W/m 11,6 C 12,2 C 0,0 km/h (0 Bft)
19.08.2016 08:03 12,2 C 96 % 1010,5 hPa 0,0 l/m 0,0 km/h (0 Bft) SO 138 0 min 23 W/m 11,6 C 12,2 C 0,0 km/h (0 Bft)
19.08.2016 08:06 12,3 C 96 % 1010,5 hPa 0,0 l/m 0,0 km/h (0 Bft) S-SO 147 0 min 25 W/m 11,7 C 12,3 C 0,0 km/h (0 Bft)
19.08.2016 08:09 12,4 C 96 % 1010,6 hPa 0,0 l/m 0,0 km/h (0 Bft) S 169 0 min 28 W/m 11,8 C 12,4 C 0,0 km/h (0 Bft)
19.08.2016 08:12 12,6 C 96 % 1010,6 hPa 0,0 l/m 0,0 km/h (0 Bft) S 177 0 min 26 W/m 12,0 C 12,6 C 0,0 km/h (0 Bft)
19.08.2016 08:15 12,7 C 96 % 1010,7 hPa 0,0 l/m 0,0 km/h (0 Bft) S 178 0 min 26 W/m 12,1 C 12,7 C 0,0 km/h (0 Bft)
19.08.2016 08:18 12,8 C 96 % 1010,7 hPa 0,0 l/m 0,0 km/h (0 Bft) SO 135 0 min 26 W/m 12,2 C 12,8 C 0,0 km/h (0 Bft)
19.08.2016 08:21 12,9 C 96 % 1010,7 hPa 0,0 l/m 0,0 km/h (0 Bft) SO 145 0 min 26 W/m 12,3 C 12,9 C 0,0 km/h (0 Bft)
19.08.2016 08:24 13,1 C 96 % 1010,7 hPa 0,0 l/m 0,0 km/h (0 Bft) S-SO 153 0 min 26 W/m 12,5 C 13,1 C 0,0 km/h (0 Bft)
19.08.2016 08:27 13,1 C 96 % 1010,6 hPa 0,0 l/m 0,0 km/h (0 Bft) S-SO 155 0 min 26 W/m 12,5 C 13,1 C 0,0 km/h (0 Bft)
19.08.2016 08:30 13,2 C 96 % 1010,6 hPa 0,0 l/m 0,0 km/h (0 Bft) S-SO 161 0 min 26 W/m 12,6 C 13,2 C 0,0 km/h (0 Bft)
19.08.2016 08:33 13,3 C 96 % 1010,7 hPa 0,0 l/m 0,0 km/h (0 Bft) S-SO 162 0 min 26 W/m 12,7 C 13,3 C 0,0 km/h (0 Bft)
19.08.2016 08:36 13,4 C 96 % 1010,6 hPa 0,0 l/m 0,0 km/h (0 Bft) S-SO 160 0 min 33 W/m 12,8 C 13,4 C 0,0 km/h (0 Bft)
19.08.2016 08:39 13,5 C 96 % 1010,7 hPa 0,0 l/m 0,0 km/h (0 Bft) S-SO 160 0 min 30 W/m 12,9 C 13,5 C 0,0 km/h (0 Bft)
19.08.2016 08:42 13,6 C 96 % 1010,7 hPa 0,0 l/m 0,0 km/h (0 Bft) S-SO 150 0 min 30 W/m 13,0 C 13,6 C 0,0 km/h (0 Bft)
19.08.2016 08:45 13,7 C 96 % 1010,6 hPa 0,0 l/m 0,0 km/h (0 Bft) S-SO 154 0 min 30 W/m 13,1 C 13,7 C 0,0 km/h (0 Bft)
19.08.2016 08:48 13,7 C 96 % 1010,7 hPa 0,0 l/m 0,0 km/h (0 Bft) S-SO 152 0 min 32 W/m 13,1 C 13,7 C 0,0 km/h (0 Bft)
19.08.2016 08:51 13,8 C 96 % 1010,6 hPa 0,0 l/m 0,0 km/h (0 Bft) S-SO 163 0 min 33 W/m 13,2 C 13,8 C 0,0 km/h (0 Bft)
19.08.2016 08:54 13,8 C 96 % 1010,7 hPa 0,0 l/m 2,1 km/h (1 Bft) S-SO 165 0 min 33 W/m 13,2 C 13,8 C 6,4 km/h (2 Bft)
19.08.2016 08:57 14,0 C 96 % 1010,7 hPa 0,0 l/m 4,8 km/h (1 Bft) S 173 0 min 35 W/m 13,4 C 14,0 C 8,0 km/h (2 Bft)
19.08.2016 09:00 14,1 C 96 % 1010,7 hPa 0,0 l/m 2,2 km/h (1 Bft) S-SO 150 0 min 32 W/m 13,5 C 14,1 C 6,4 km/h (2 Bft)
19.08.2016 09:03 14,2 C 96 % 1010,7 hPa 0,0 l/m 2,7 km/h (1 Bft) SO 130 0 min 33 W/m 13,6 C 14,2 C 8,0 km/h (2 Bft)
19.08.2016 09:06 14,3 C 95 % 1010,6 hPa 0,0 l/m 3,2 km/h (1 Bft) SO 137 0 min 30 W/m 13,5 C 14,3 C 4,8 km/h (1 Bft)
19.08.2016 09:09 14,4 C 95 % 1010,6 hPa 0,0 l/m 2,8 km/h (1 Bft) O-SO 114 0 min 30 W/m 13,6 C 14,4 C 6,4 km/h (2 Bft)
19.08.2016 09:12 14,5 C 95 % 1010,6 hPa 0,0 l/m 3,1 km/h (1 Bft) O-SO 117 0 min 32 W/m 13,7 C 14,5 C 6,4 km/h (2 Bft)
19.08.2016 09:15 14,7 C 95 % 1010,6 hPa 0,0 l/m 2,0 km/h (1 Bft) O-SO 121 0 min 30 W/m 13,9 C 14,7 C 3,2 km/h (1 Bft)
19.08.2016 09:18 14,8 C 94 % 1010,6 hPa 0,0 l/m 2,3 km/h (1 Bft) S 169 0 min 30 W/m 13,8 C 14,8 C 6,4 km/h (2 Bft)
19.08.2016 09:21 14,9 C 94 % 1010,6 hPa 0,0 l/m 4,1 km/h (1 Bft) S 169 0 min 33 W/m 13,9 C 14,9 C 8,0 km/h (2 Bft)
19.08.2016 09:24 15,1 C 93 % 1010,5 hPa 0,0 l/m 4,4 km/h (1 Bft) SO 133 0 min 30 W/m 14,0 C 15,1 C 8,0 km/h (2 Bft)
19.08.2016 09:27 15,2 C 93 % 1010,6 hPa 0,0 l/m 2,2 km/h (1 Bft) S 173 0 min 32 W/m 14,1 C 15,2 C 8,0 km/h (2 Bft)
19.08.2016 09:30 15,2 C 93 % 1010,6 hPa 0,0 l/m 3,1 km/h (1 Bft) S 171 0 min 32 W/m 14,1 C 15,2 C 6,4 km/h (2 Bft)
19.08.2016 09:33 15,2 C 93 % 1010,6 hPa 0,0 l/m 2,8 km/h (1 Bft) S 170 0 min 32 W/m 14,1 C 15,2 C 6,4 km/h (2 Bft)
19.08.2016 09:36 15,2 C 93 % 1010,6 hPa 0,0 l/m 2,2 km/h (1 Bft) SO 134 0 min 33 W/m 14,1 C 15,2 C 4,8 km/h (1 Bft)
19.08.2016 09:39 15,3 C 93 % 1010,7 hPa 0,0 l/m 1,7 km/h (1 Bft) O-SO 121 0 min 35 W/m 14,2 C 15,3 C 6,4 km/h (2 Bft)
19.08.2016 09:42 15,4 C 93 % 1010,6 hPa 0,0 l/m 2,8 km/h (1 Bft) O-SO 119 0 min 35 W/m 14,3 C 15,4 C 6,4 km/h (2 Bft)
19.08.2016 09:45 15,5 C 92 % 1010,6 hPa 0,0 l/m 4,1 km/h (1 Bft) S 180 0 min 35 W/m 14,2 C 15,5 C 6,4 km/h (2 Bft)
19.08.2016 09:48 15,7 C 92 % 1010,7 hPa 0,0 l/m 4,9 km/h (1 Bft) S 173 0 min 70 W/m 14,4 C 15,7 C 8,0 km/h (2 Bft)
19.08.2016 09:51 15,9 C 90 % 1010,7 hPa 0,0 l/m 4,8 km/h (1 Bft) O-SO 114 0 min 70 W/m 14,3 C 15,9 C 8,0 km/h (2 Bft)
19.08.2016 09:54 16,1 C 89 % 1010,6 hPa 0,0 l/m 3,6 km/h (1 Bft) S 174 0 min 190 W/m 14,3 C 16,1 C 9,7 km/h (2 Bft)
19.08.2016 09:57 16,2 C 89 % 1010,7 hPa 0,0 l/m 2,7 km/h (1 Bft) SO 126 0 min 190 W/m 14,4 C 16,2 C 4,8 km/h (1 Bft)
19.08.2016 10:00 16,3 C 88 % 1010,7 hPa 0,0 l/m 2,7 km/h (1 Bft) SO 140 0 min 77 W/m 14,3 C 16,3 C 4,8 km/h (1 Bft)
19.08.2016 10:03 16,4 C 88 % 1010,7 hPa 0,0 l/m 4,0 km/h (1 Bft) S 169 0 min 44 W/m 14,4 C 16,4 C 8,0 km/h (2 Bft)
19.08.2016 10:06 16,6 C 87 % 1010,7 hPa 0,0 l/m 2,1 km/h (1 Bft) S 170 0 min 37 W/m 14,4 C 16,6 C 6,4 km/h (2 Bft)
19.08.2016 10:09 16,5 C 87 % 1010,7 hPa 0,0 l/m 2,1 km/h (1 Bft) SO 142 0 min 39 W/m 14,3 C 16,5 C 4,8 km/h (1 Bft)
19.08.2016 10:12 16,5 C 89 % 1010,6 hPa 0,0 l/m 2,4 km/h (1 Bft) N-NO 23 0 min 39 W/m 14,7 C 16,5 C 4,8 km/h (1 Bft)
19.08.2016 10:15 16,6 C 89 % 1010,6 hPa 0,0 l/m 1,7 km/h (1 Bft) N-NO 26 0 min 39 W/m 14,8 C 16,6 C 4,8 km/h (1 Bft)
19.08.2016 10:18 16,6 C 88 % 1010,6 hPa 0,0 l/m 1,5 km/h (1 Bft) N-NO 26 0 min 39 W/m 14,6 C 16,6 C 3,2 km/h (1 Bft)
19.08.2016 10:21 16,7 C 86 % 1010,6 hPa 0,0 l/m 1,7 km/h (1 Bft) NO 46 0 min 40 W/m 14,3 C 16,7 C 3,2 km/h (1 Bft)
19.08.2016 10:24 16,9 C 84 % 1010,6 hPa 0,0 l/m 1,1 km/h (1 Bft) NO 46 0 min 40 W/m 14,2 C 16,9 C 3,2 km/h (1 Bft)
19.08.2016 10:27 17,0 C 85 % 1010,6 hPa 0,0 l/m 2,5 km/h (1 Bft) S 175 0 min 40 W/m 14,5 C 17,0 C 6,4 km/h (2 Bft)
19.08.2016 10:30 17,0 C 85 % 1010,6 hPa 0,0 l/m 2,0 km/h (1 Bft) S-SO 158 0 min 40 W/m 14,5 C 17,0 C 8,0 km/h (2 Bft)
19.08.2016 10:33 17,2 C 82 % 1010,5 hPa 0,0 l/m 4,2 km/h (1 Bft) SW 225 0 min 42 W/m 14,1 C 17,2 C 8,0 km/h (2 Bft)
19.08.2016 10:36 17,4 C 83 % 1010,6 hPa 0,0 l/m 2,7 km/h (1 Bft) S-SW 211 0 min 42 W/m 14,5 C 17,4 C 4,8 km/h (1 Bft)
19.08.2016 10:39 17,3 C 84 % 1010,6 hPa 0,0 l/m 1,7 km/h (1 Bft) SO 130 0 min 42 W/m 14,6 C 17,3 C 3,2 km/h (1 Bft)
19.08.2016 10:42 17,3 C 83 % 1010,6 hPa 0,0 l/m 2,3 km/h (1 Bft) O-SO 108 0 min 44 W/m 14,4 C 17,3 C 4,8 km/h (1 Bft)
19.08.2016 10:45 17,4 C 84 % 1010,6 hPa 0,0 l/m 2,2 km/h (1 Bft) O-SO 103 0 min 44 W/m 14,7 C 17,4 C 4,8 km/h (1 Bft)
19.08.2016 10:48 17,6 C 83 % 1010,6 hPa 0,0 l/m 2,0 km/h (1 Bft) NO 55 0 min 44 W/m 14,7 C 17,6 C 6,4 km/h (2 Bft)
19.08.2016 10:51 17,7 C 83 % 1010,6 hPa 0,0 l/m 3,6 km/h (1 Bft) N-NO 31 0 min 46 W/m 14,8 C 17,7 C 6,4 km/h (2 Bft)
19.08.2016 10:54 17,9 C 83 % 1010,6 hPa 0,0 l/m 2,8 km/h (1 Bft) O-SO 108 0 min 46 W/m 15,0 C 17,9 C 4,8 km/h (1 Bft)
19.08.2016 10:57 18,0 C 82 % 1010,6 hPa 0,0 l/m 2,1 km/h (1 Bft) O 88 0 min 46 W/m 14,9 C 18,0 C 4,8 km/h (1 Bft)
19.08.2016 11:00 18,1 C 81 % 1010,5 hPa 0,0 l/m 2,9 km/h (1 Bft) O-NO 74 0 min 65 W/m 14,8 C 18,1 C 6,4 km/h (2 Bft)
19.08.2016 11:03 18,1 C 83 % 1010,5 hPa 0,0 l/m 2,0 km/h (1 Bft) NO 45 0 min 53 W/m 15,2 C 18,1 C 4,8 km/h (1 Bft)
19.08.2016 11:06 18,1 C 83 % 1010,5 hPa 0,0 l/m 3,2 km/h (1 Bft) NO 45 0 min 102 W/m 15,2 C 18,1 C 8,0 km/h (2 Bft)
19.08.2016 11:09 18,1 C 82 % 1010,5 hPa 0,0 l/m 2,8 km/h (1 Bft) N-NW 344 0 min 53 W/m 15,0 C 18,1 C 6,4 km/h (2 Bft)
19.08.2016 11:12 18,1 C 84 % 1010,5 hPa 0,0 l/m 2,4 km/h (1 Bft) S-SO 147 0 min 54 W/m 15,4 C 18,1 C 4,8 km/h (1 Bft)
19.08.2016 11:15 18,0 C 83 % 1010,5 hPa 0,0 l/m 3,2 km/h (1 Bft) S 176 0 min 54 W/m 15,1 C 18,0 C 4,8 km/h (1 Bft)
19.08.2016 11:18 18,2 C 79 % 1010,5 hPa 0,0 l/m 3,2 km/h (1 Bft) N-NW 332 0 min 53 W/m 14,5 C 18,2 C 8,0 km/h (2 Bft)
19.08.2016 11:21 18,3 C 82 % 1010,5 hPa 0,0 l/m 3,1 km/h (1 Bft) N 5 0 min 58 W/m 15,2 C 18,3 C 9,7 km/h (2 Bft)
19.08.2016 11:24 18,3 C 81 % 1010,5 hPa 0,0 l/m 3,9 km/h (1 Bft) NO 40 0 min 79 W/m 15,0 C 18,3 C 6,4 km/h (2 Bft)
19.08.2016 11:27 18,5 C 80 % 1010,5 hPa 0,0 l/m 5,0 km/h (1 Bft) O-NO 70 0 min 67 W/m 15,0 C 18,5 C 8,0 km/h (2 Bft)
19.08.2016 11:30 18,5 C 78 % 1010,5 hPa 0,0 l/m 1,6 km/h (1 Bft) O-SO 108 0 min 58 W/m 14,6 C 18,5 C 4,8 km/h (1 Bft)
19.08.2016 11:33 18,7 C 78 % 1010,5 hPa 0,0 l/m 1,8 km/h (1 Bft) NW 323 0 min 60 W/m 14,8 C 18,7 C 8,0 km/h (2 Bft)
19.08.2016 11:36 18,7 C 77 % 1010,5 hPa 0,0 l/m 1,6 km/h (1 Bft) N-NW 327 0 min 62 W/m 14,6 C 18,7 C 3,2 km/h (1 Bft)
19.08.2016 11:39 18,8 C 78 % 1010,5 hPa 0,0 l/m 2,8 km/h (1 Bft) N-NW 340 0 min 69 W/m 14,9 C 18,8 C 6,4 km/h (2 Bft)
19.08.2016 11:42 18,8 C 77 % 1010,5 hPa 0,0 l/m 4,2 km/h (1 Bft) NO 50 0 min 79 W/m 14,7 C 18,8 C 8,0 km/h (2 Bft)
19.08.2016 11:45 18,8 C 78 % 1010,5 hPa 0,0 l/m 3,8 km/h (1 Bft) NO 55 0 min 84 W/m 14,9 C 18,8 C 6,4 km/h (2 Bft)
19.08.2016 11:48 19,1 C 76 % 1010,5 hPa 0,0 l/m 4,5 km/h (1 Bft) N 355 0 min 102 W/m 14,8 C 19,1 C 9,7 km/h (2 Bft)
19.08.2016 11:51 19,1 C 76 % 1010,5 hPa 0,0 l/m 5,0 km/h (1 Bft) N-NW 335 0 min 128 W/m 14,8 C 19,1 C 9,7 km/h (2 Bft)
19.08.2016 11:54 19,3 C 74 % 1010,6 hPa 0,0 l/m 1,4 km/h (1 Bft) N-NW 336 0 min 128 W/m 14,5 C 19,3 C 4,8 km/h (1 Bft)
19.08.2016 11:57 19,4 C 79 % 1010,6 hPa 0,0 l/m 3,5 km/h (1 Bft) NO 46 3 min 717 W/m 15,7 C 19,4 C 9,7 km/h (2 Bft)
19.08.2016 12:00 19,7 C 78 % 1010,5 hPa 0,0 l/m 3,5 km/h (1 Bft) N-NO 13 3 min 721 W/m 15,8 C 19,7 C 6,4 km/h (2 Bft)
19.08.2016 12:03 19,9 C 77 % 1010,5 hPa 0,0 l/m 3,7 km/h (1 Bft) W 279 3 min 722 W/m 15,7 C 19,9 C 9,7 km/h (2 Bft)
19.08.2016 12:06 20,2 C 77 % 1010,5 hPa 0,0 l/m 3,5 km/h (1 Bft) O-SO 115 3 min 742 W/m 16,0 C 20,2 C 8,0 km/h (2 Bft)
19.08.2016 12:09 20,2 C 76 % 1010,4 hPa 0,0 l/m 2,3 km/h (1 Bft) O-SO 121 3 min 754 W/m 15,8 C 20,2 C 6,4 km/h (2 Bft)
19.08.2016 12:12 20,3 C 75 % 1010,4 hPa 0,0 l/m 4,2 km/h (1 Bft) O 89 3 min 747 W/m 15,7 C 20,3 C 9,7 km/h (2 Bft)
19.08.2016 12:15 20,3 C 72 % 1010,4 hPa 0,0 l/m 3,4 km/h (1 Bft) NO 38 3 min 745 W/m 15,1 C 20,3 C 6,4 km/h (2 Bft)
19.08.2016 12:18 20,3 C 74 % 1010,4 hPa 0,0 l/m 2,5 km/h (1 Bft) O-NO 67 0 min 81 W/m 15,5 C 20,3 C 4,8 km/h (1 Bft)
19.08.2016 12:21 19,8 C 75 % 1010,4 hPa 0,0 l/m 2,6 km/h (1 Bft) N-NO 28 0 min 91 W/m 15,2 C 19,8 C 11,3 km/h (2 Bft)
19.08.2016 12:24 19,3 C 76 % 1010,4 hPa 0,0 l/m 3,6 km/h (1 Bft) NO 36 0 min 77 W/m 15,0 C 19,3 C 6,4 km/h (2 Bft)
19.08.2016 12:27 19,1 C 77 % 1010,4 hPa 0,0 l/m 3,5 km/h (1 Bft) NW 319 0 min 67 W/m 15,0 C 19,1 C 6,4 km/h (2 Bft)
19.08.2016 12:30 18,8 C 79 % 1010,4 hPa 0,0 l/m 2,1 km/h (1 Bft) O-SO 111 0 min 56 W/m 15,1 C 18,8 C 6,4 km/h (2 Bft)
19.08.2016 12:33 18,4 C 80 % 1010,4 hPa 0,0 l/m 1,7 km/h (1 Bft) O-SO 102 0 min 62 W/m 14,9 C 18,4 C 4,8 km/h (1 Bft)
19.08.2016 12:36 18,3 C 81 % 1010,5 hPa 0,0 l/m 1,8 km/h (1 Bft) SO 124 0 min 81 W/m 15,0 C 18,3 C 4,8 km/h (1 Bft)
19.08.2016 12:39 18,2 C 82 % 1010,5 hPa 0,0 l/m 2,3 km/h (1 Bft) O 79 0 min 95 W/m 15,1 C 18,2 C 8,0 km/h (2 Bft)
19.08.2016 12:42 18,2 C 80 % 1010,5 hPa 0,0 l/m 2,7 km/h (1 Bft) N 351 3 min 768 W/m 14,7 C 18,2 C 6,4 km/h (2 Bft)
19.08.2016 12:45 19,1 C 76 % 1010,3 hPa 0,0 l/m 3,7 km/h (1 Bft) N 5 3 min 784 W/m 14,8 C 19,1 C 8,0 km/h (2 Bft)
19.08.2016 12:48 20,0 C 73 % 1010,3 hPa 0,0 l/m 3,3 km/h (1 Bft) N 5 3 min 747 W/m 15,0 C 20,0 C 8,0 km/h (2 Bft)
19.08.2016 12:51 20,3 C 73 % 1010,3 hPa 0,0 l/m 4,1 km/h (1 Bft) N-NO 23 3 min 780 W/m 15,3 C 20,3 C 9,7 km/h (2 Bft)
19.08.2016 12:54 20,7 C 76 % 1010,4 hPa 0,0 l/m 2,7 km/h (1 Bft) N-NO 20 3 min 784 W/m 16,3 C 20,7 C 8,0 km/h (2 Bft)
19.08.2016 12:57 20,8 C 73 % 1010,4 hPa 0,0 l/m 1,9 km/h (1 Bft) O-NO 67 0 min 125 W/m 15,8 C 20,8 C 6,4 km/h (2 Bft)
19.08.2016 13:00 20,4 C 69 % 1010,4 hPa 0,0 l/m 3,7 km/h (1 Bft) NO 51 0 min 125 W/m 14,5 C 20,4 C 6,4 km/h (2 Bft)
19.08.2016 13:03 20,1 C 72 % 1010,3 hPa 0,0 l/m 2,4 km/h (1 Bft) NO 51 3 min 831 W/m 14,9 C 20,1 C 4,8 km/h (1 Bft)
19.08.2016 13:06 20,6 C 73 % 1010,3 hPa 0,0 l/m 4,1 km/h (1 Bft) N-NW 327 3 min 770 W/m 15,6 C 20,6 C 9,7 km/h (2 Bft)
19.08.2016 13:09 20,9 C 73 % 1010,3 hPa 0,0 l/m 3,8 km/h (1 Bft) N-NO 16 3 min 780 W/m 15,9 C 20,9 C 6,4 km/h (2 Bft)
19.08.2016 13:12 21,3 C 77 % 1010,3 hPa 0,0 l/m 3,3 km/h (1 Bft) NO 34 3 min 721 W/m 17,1 C 21,3 C 8,0 km/h (2 Bft)
19.08.2016 13:15 21,4 C 75 % 1010,3 hPa 0,0 l/m 4,7 km/h (1 Bft) N-NO 30 3 min 705 W/m 16,8 C 21,4 C 9,7 km/h (2 Bft)
19.08.2016 13:18 21,7 C 73 % 1010,3 hPa 0,0 l/m 3,9 km/h (1 Bft) O-NO 59 3 min 671 W/m 16,6 C 21,7 C 9,7 km/h (2 Bft)
19.08.2016 13:21 21,9 C 74 % 1010,2 hPa 0,0 l/m 3,4 km/h (1 Bft) O 83 3 min 636 W/m 17,0 C 21,9 C 11,3 km/h (2 Bft)
19.08.2016 13:24 22,0 C 71 % 1010,2 hPa 0,0 l/m 2,5 km/h (1 Bft) O-SO 111 3 min 624 W/m 16,5 C 22,0 C 6,4 km/h (2 Bft)
19.08.2016 13:27 21,9 C 70 % 1010,2 hPa 0,0 l/m 3,5 km/h (1 Bft) NW 323 3 min 629 W/m 16,2 C 21,9 C 8,0 km/h (2 Bft)
19.08.2016 13:30 22,1 C 72 % 1010,2 hPa 0,0 l/m 1,4 km/h (1 Bft) N-NW 346 3 min 654 W/m 16,8 C 22,1 C 3,2 km/h (1 Bft)
19.08.2016 13:33 22,2 C 72 % 1010,2 hPa 0,0 l/m 2,1 km/h (1 Bft) NO 39 3 min 677 W/m 16,9 C 22,2 C 8,0 km/h (2 Bft)
19.08.2016 13:36 22,3 C 72 % 1010,1 hPa 0,0 l/m 2,7 km/h (1 Bft) NO 40 3 min 719 W/m 17,0 C 22,3 C 9,7 km/h (2 Bft)
19.08.2016 13:39 22,2 C 67 % 1010,1 hPa 0,0 l/m 3,9 km/h (1 Bft) NW 311 3 min 719 W/m 15,8 C 22,2 C 8,0 km/h (2 Bft)
19.08.2016 13:42 22,2 C 68 % 1010,1 hPa 0,0 l/m 4,2 km/h (1 Bft) N-NO 18 3 min 719 W/m 16,0 C 22,2 C 8,0 km/h (2 Bft)
19.08.2016 13:45 22,0 C 67 % 1010,1 hPa 0,0 l/m 4,5 km/h (1 Bft) N-NO 28 3 min 766 W/m 15,6 C 22,0 C 11,3 km/h (2 Bft)
19.08.2016 13:48 21,3 C 68 % 1010,1 hPa 0,0 l/m 4,6 km/h (1 Bft) N-NO 23 0 min 218 W/m 15,1 C 21,3 C 8,0 km/h (2 Bft)
19.08.2016 13:51 21,3 C 70 % 1010,0 hPa 0,0 l/m 3,8 km/h (1 Bft) O-NO 57 3 min 789 W/m 15,6 C 21,3 C 8,0 km/h (2 Bft)
19.08.2016 13:54 21,6 C 68 % 1010,0 hPa 0,0 l/m 4,5 km/h (1 Bft) N 5 3 min 796 W/m 15,4 C 21,6 C 11,3 km/h (2 Bft)
19.08.2016 13:57 21,8 C 70 % 1010,0 hPa 0,0 l/m 4,8 km/h (1 Bft) NO 34 3 min 779 W/m 16,1 C 21,8 C 11,3 km/h (2 Bft)
19.08.2016 14:00 22,2 C 70 % 1010,0 hPa 0,0 l/m 4,0 km/h (1 Bft) O-NO 57 3 min 775 W/m 16,5 C 22,2 C 11,3 km/h (2 Bft)
19.08.2016 14:03 22,2 C 69 % 1010,0 hPa 0,0 l/m 4,0 km/h (1 Bft) NO 48 3 min 763 W/m 16,2 C 22,2 C 8,0 km/h (2 Bft)
19.08.2016 14:06 22,2 C 66 % 1010,0 hPa 0,0 l/m 5,5 km/h (2 Bft) N-NW 328 3 min 759 W/m 15,5 C 22,2 C 12,9 km/h (3 Bft)
19.08.2016 14:09 22,3 C 70 % 1010,0 hPa 0,0 l/m 3,2 km/h (1 Bft) O-NO 65 3 min 747 W/m 16,6 C 22,3 C 8,0 km/h (2 Bft)
19.08.2016 14:12 22,4 C 69 % 1010,0 hPa 0,0 l/m 3,4 km/h (1 Bft) N 5 3 min 770 W/m 16,4 C 22,4 C 9,7 km/h (2 Bft)
19.08.2016 14:15 22,2 C 68 % 1010,0 hPa 0,0 l/m 4,0 km/h (1 Bft) O-NO 67 0 min 357 W/m 16,0 C 22,2 C 9,7 km/h (2 Bft)
19.08.2016 14:18 21,6 C 66 % 1010,0 hPa 0,0 l/m 5,7 km/h (2 Bft) NW 315 0 min 334 W/m 15,0 C 21,6 C 12,9 km/h (3 Bft)
19.08.2016 14:21 21,7 C 73 % 1010,0 hPa 0,0 l/m 2,7 km/h (1 Bft) SO 126 3 min 513 W/m 16,6 C 21,7 C 6,4 km/h (2 Bft)
19.08.2016 14:24 21,5 C 70 % 1009,9 hPa 0,0 l/m 2,7 km/h (1 Bft) O-SO 111 0 min 113 W/m 15,8 C 21,5 C 4,8 km/h (1 Bft)
19.08.2016 14:27 20,8 C 70 % 1009,9 hPa 0,0 l/m 2,9 km/h (1 Bft) NO 55 0 min 179 W/m 15,1 C 20,8 C 6,4 km/h (2 Bft)
19.08.2016 14:30 20,5 C 74 % 1009,9 hPa 0,0 l/m 3,4 km/h (1 Bft) SO 143 3 min 578 W/m 15,7 C 20,5 C 6,4 km/h (2 Bft)
19.08.2016 14:33 20,6 C 73 % 1009,9 hPa 0,0 l/m 3,0 km/h (1 Bft) N-NO 28 0 min 137 W/m 15,6 C 20,6 C 6,4 km/h (2 Bft)
19.08.2016 14:36 20,3 C 71 % 1010,0 hPa 0,0 l/m 3,6 km/h (1 Bft) NO 53 0 min 185 W/m 14,9 C 20,3 C 6,4 km/h (2 Bft)
19.08.2016 14:39 21,0 C 73 % 1009,9 hPa 0,0 l/m 2,0 km/h (1 Bft) S-SO 153 3 min 775 W/m 16,0 C 21,0 C 3,2 km/h (1 Bft)
19.08.2016 14:42 21,8 C 74 % 1009,9 hPa 0,0 l/m 2,6 km/h (1 Bft) O-NO 70 3 min 775 W/m 17,0 C 21,8 C 4,8 km/h (1 Bft)
19.08.2016 14:45 22,4 C 73 % 1009,8 hPa 0,0 l/m 4,3 km/h (1 Bft) N-NO 33 3 min 752 W/m 17,3 C 22,4 C 9,7 km/h (2 Bft)
19.08.2016 14:48 22,4 C 65 % 1009,9 hPa 0,0 l/m 4,9 km/h (1 Bft) N 355 3 min 740 W/m 15,5 C 22,4 C 14,5 km/h (3 Bft)
19.08.2016 14:51 22,3 C 66 % 1009,8 hPa 0,0 l/m 4,0 km/h (1 Bft) NW 307 3 min 726 W/m 15,6 C 22,3 C 11,3 km/h (2 Bft)
19.08.2016 14:54 22,2 C 65 % 1009,8 hPa 0,0 l/m 3,1 km/h (1 Bft) O-SO 121 3 min 722 W/m 15,3 C 22,2 C 6,4 km/h (2 Bft)
19.08.2016 14:57 22,4 C 65 % 1009,7 hPa 0,0 l/m 4,3 km/h (1 Bft) N 355 3 min 712 W/m 15,5 C 22,4 C 11,3 km/h (2 Bft)
19.08.2016 15:00 22,4 C 66 % 1009,7 hPa 0,0 l/m 4,2 km/h (1 Bft) N-NO 31 3 min 701 W/m 15,7 C 22,4 C 11,3 km/h (2 Bft)
19.08.2016 15:03 22,8 C 66 % 1009,7 hPa 0,0 l/m 4,6 km/h (1 Bft) O 84 3 min 701 W/m 16,1 C 22,8 C 12,9 km/h (3 Bft)
19.08.2016 15:06 22,7 C 66 % 1009,7 hPa 0,0 l/m 4,8 km/h (1 Bft) NO 39 3 min 700 W/m 16,0 C 22,7 C 9,7 km/h (2 Bft)
19.08.2016 15:09 22,8 C 69 % 1009,7 hPa 0,0 l/m 4,4 km/h (1 Bft) O 101 3 min 689 W/m 16,8 C 22,8 C 12,9 km/h (3 Bft)
19.08.2016 15:12 22,8 C 64 % 1009,7 hPa 0,0 l/m 4,1 km/h (1 Bft) N-NW 329 3 min 689 W/m 15,6 C 22,8 C 9,7 km/h (2 Bft)
19.08.2016 15:15 22,8 C 65 % 1009,7 hPa 0,0 l/m 3,1 km/h (1 Bft) N-NO 20 3 min 687 W/m 15,9 C 22,8 C 8,0 km/h (2 Bft)
19.08.2016 15:18 22,6 C 64 % 1009,7 hPa 0,0 l/m 4,9 km/h (1 Bft) N 5 3 min 684 W/m 15,4 C 22,6 C 9,7 km/h (2 Bft)
19.08.2016 15:21 22,4 C 64 % 1009,7 hPa 0,0 l/m 4,9 km/h (1 Bft) NO 53 3 min 675 W/m 15,2 C 22,4 C 9,7 km/h (2 Bft)
19.08.2016 15:24 22,9 C 68 % 1009,6 hPa 0,0 l/m 3,8 km/h (1 Bft) N 5 3 min 670 W/m 16,7 C 22,9 C 8,0 km/h (2 Bft)
19.08.2016 15:27 23,1 C 65 % 1009,6 hPa 0,0 l/m 3,8 km/h (1 Bft) NW 306 3 min 671 W/m 16,2 C 23,1 C 9,7 km/h (2 Bft)
19.08.2016 15:30 22,8 C 62 % 1009,6 hPa 0,0 l/m 5,0 km/h (1 Bft) N-NW 336 3 min 661 W/m 15,1 C 22,8 C 12,9 km/h (3 Bft)
19.08.2016 15:33 22,6 C 65 % 1009,6 hPa 0,0 l/m 4,2 km/h (1 Bft) N-NO 24 3 min 661 W/m 15,7 C 22,6 C 8,0 km/h (2 Bft)
19.08.2016 15:36 22,8 C 67 % 1009,6 hPa 0,0 l/m 4,2 km/h (1 Bft) N-NO 18 3 min 659 W/m 16,3 C 22,8 C 11,3 km/h (2 Bft)
19.08.2016 15:39 22,8 C 68 % 1009,6 hPa 0,0 l/m 3,8 km/h (1 Bft) O-NO 60 3 min 654 W/m 16,6 C 22,8 C 6,4 km/h (2 Bft)
19.08.2016 15:42 22,6 C 66 % 1009,6 hPa 0,0 l/m 4,4 km/h (1 Bft) NO 38 3 min 649 W/m 15,9 C 22,6 C 11,3 km/h (2 Bft)
19.08.2016 15:45 23,1 C 72 % 1009,6 hPa 0,0 l/m 3,7 km/h (1 Bft) NO 37 3 min 649 W/m 17,8 C 23,1 C 9,7 km/h (2 Bft)
19.08.2016 15:48 23,1 C 70 % 1009,5 hPa 0,0 l/m 3,3 km/h (1 Bft) N 360 3 min 636 W/m 17,3 C 23,1 C 8,0 km/h (2 Bft)
19.08.2016 15:51 22,8 C 63 % 1009,5 hPa 0,0 l/m 3,6 km/h (1 Bft) N-NO 13 3 min 631 W/m 15,4 C 22,8 C 8,0 km/h (2 Bft)
19.08.2016 15:54 22,7 C 65 % 1009,5 hPa 0,0 l/m 1,9 km/h (1 Bft) W 259 3 min 631 W/m 15,8 C 22,7 C 4,8 km/h (1 Bft)
19.08.2016 15:57 22,5 C 65 % 1009,5 hPa 0,0 l/m 3,4 km/h (1 Bft) O-NO 61 3 min 628 W/m 15,6 C 22,5 C 6,4 km/h (2 Bft)
19.08.2016 16:00 22,3 C 69 % 1009,5 hPa 0,0 l/m 4,3 km/h (1 Bft) NW 312 3 min 621 W/m 16,3 C 22,3 C 8,0 km/h (2 Bft)
19.08.2016 16:03 22,6 C 70 % 1009,5 hPa 0,0 l/m 2,0 km/h (1 Bft) O 99 3 min 621 W/m 16,8 C 22,6 C 4,8 km/h (1 Bft)
19.08.2016 16:06 22,5 C 67 % 1009,5 hPa 0,0 l/m 3,0 km/h (1 Bft) NO 36 3 min 592 W/m 16,1 C 22,5 C 8,0 km/h (2 Bft)
19.08.2016 16:09 22,4 C 69 % 1009,5 hPa 0,0 l/m 2,9 km/h (1 Bft) N-NW 344 3 min 577 W/m 16,4 C 22,4 C 6,4 km/h (2 Bft)
19.08.2016 16:12 22,4 C 67 % 1009,4 hPa 0,0 l/m 3,5 km/h (1 Bft) N-NW 338 3 min 557 W/m 16,0 C 22,4 C 9,7 km/h (2 Bft)
19.08.2016 16:15 22,3 C 69 % 1009,4 hPa 0,0 l/m 3,8 km/h (1 Bft) N 5 3 min 557 W/m 16,3 C 22,3 C 11,3 km/h (2 Bft)
19.08.2016 16:18 22,3 C 66 % 1009,3 hPa 0,0 l/m 4,0 km/h (1 Bft) N-NO 27 3 min 584 W/m 15,6 C 22,3 C 8,0 km/h (2 Bft)
19.08.2016 16:21 22,4 C 70 % 1009,3 hPa 0,0 l/m 4,0 km/h (1 Bft) N-NO 20 3 min 548 W/m 16,7 C 22,4 C 9,7 km/h (2 Bft)
19.08.2016 16:24 22,6 C 69 % 1009,3 hPa 0,0 l/m 3,0 km/h (1 Bft) NO 55 3 min 538 W/m 16,6 C 22,6 C 6,4 km/h (2 Bft)
19.08.2016 16:27 22,8 C 69 % 1009,3 hPa 0,0 l/m 3,2 km/h (1 Bft) NO 49 3 min 480 W/m 16,8 C 22,8 C 6,4 km/h (2 Bft)
19.08.2016 16:30 22,6 C 70 % 1009,3 hPa 0,0 l/m 2,2 km/h (1 Bft) O-SO 117 3 min 411 W/m 16,8 C 22,6 C 3,2 km/h (1 Bft)
19.08.2016 16:33 22,4 C 71 % 1009,2 hPa 0,0 l/m 3,1 km/h (1 Bft) NO 41 3 min 468 W/m 16,9 C 22,4 C 6,4 km/h (2 Bft)
19.08.2016 16:36 22,1 C 69 % 1009,1 hPa 0,0 l/m 3,6 km/h (1 Bft) O-NO 59 3 min 550 W/m 16,1 C 22,1 C 8,0 km/h (2 Bft)
19.08.2016 16:39 22,2 C 70 % 1009,2 hPa 0,0 l/m 2,8 km/h (1 Bft) O-SO 104 3 min 506 W/m 16,5 C 22,2 C 8,0 km/h (2 Bft)
19.08.2016 16:42 22,3 C 71 % 1009,1 hPa 0,0 l/m 2,3 km/h (1 Bft) N 350 3 min 489 W/m 16,8 C 22,3 C 4,8 km/h (1 Bft)
19.08.2016 16:45 22,4 C 71 % 1009,1 hPa 0,0 l/m 1,5 km/h (1 Bft) N 355 3 min 482 W/m 16,9 C 22,4 C 3,2 km/h (1 Bft)
19.08.2016 16:48 22,4 C 71 % 1009,1 hPa 0,0 l/m 1,5 km/h (1 Bft) O-NO 65 3 min 519 W/m 16,9 C 22,4 C 4,8 km/h (1 Bft)
19.08.2016 16:51 22,4 C 69 % 1009,0 hPa 0,0 l/m 3,5 km/h (1 Bft) NO 47 3 min 547 W/m 16,4 C 22,4 C 8,0 km/h (2 Bft)
19.08.2016 16:54 22,3 C 67 % 1009,0 hPa 0,0 l/m 3,9 km/h (1 Bft) N 11 3 min 429 W/m 15,9 C 22,3 C 8,0 km/h (2 Bft)
19.08.2016 16:57 22,1 C 70 % 1009,0 hPa 0,0 l/m 3,9 km/h (1 Bft) O-NO 74 3 min 469 W/m 16,4 C 22,1 C 9,7 km/h (2 Bft)
19.08.2016 17:00 22,2 C 70 % 1009,1 hPa 0,0 l/m 4,3 km/h (1 Bft) O-SO 103 3 min 512 W/m 16,5 C 22,2 C 12,9 km/h (3 Bft)
19.08.2016 17:03 22,2 C 66 % 1009,1 hPa 0,0 l/m 5,8 km/h (2 Bft) N 5 3 min 506 W/m 15,5 C 22,2 C 9,7 km/h (2 Bft)
19.08.2016 17:06 22,2 C 68 % 1009,1 hPa 0,0 l/m 3,4 km/h (1 Bft) N-NO 24 3 min 506 W/m 16,0 C 22,2 C 6,4 km/h (2 Bft)
19.08.2016 17:09 22,2 C 71 % 1009,1 hPa 0,0 l/m 2,1 km/h (1 Bft) O 96 3 min 499 W/m 16,7 C 22,2 C 4,8 km/h (1 Bft)
19.08.2016 17:12 22,2 C 71 % 1009,0 hPa 0,0 l/m 2,7 km/h (1 Bft) O-NO 78 3 min 485 W/m 16,7 C 22,2 C 11,3 km/h (2 Bft)
19.08.2016 17:15 22,2 C 73 % 1009,0 hPa 0,0 l/m 4,1 km/h (1 Bft) N-NW 348 3 min 469 W/m 17,1 C 22,2 C 8,0 km/h (2 Bft)
19.08.2016 17:18 22,1 C 72 % 1009,0 hPa 0,0 l/m 2,1 km/h (1 Bft) NO 44 3 min 461 W/m 16,8 C 22,1 C 4,8 km/h (1 Bft)
19.08.2016 17:21 22,2 C 72 % 1009,0 hPa 0,0 l/m 2,7 km/h (1 Bft) NO 50 3 min 454 W/m 16,9 C 22,2 C 8,0 km/h (2 Bft)
19.08.2016 17:24 22,0 C 69 % 1008,9 hPa 0,0 l/m 4,4 km/h (1 Bft) N-NO 24 3 min 464 W/m 16,0 C 22,0 C 9,7 km/h (2 Bft)
19.08.2016 17:27 21,7 C 71 % 1008,8 hPa 0,0 l/m 1,8 km/h (1 Bft) N 355 3 min 461 W/m 16,2 C 21,7 C 3,2 km/h (1 Bft)
19.08.2016 17:30 21,7 C 71 % 1008,7 hPa 0,0 l/m 4,0 km/h (1 Bft) NW 326 3 min 267 W/m 16,2 C 21,7 C 12,9 km/h (3 Bft)
19.08.2016 17:33 21,4 C 71 % 1008,7 hPa 0,0 l/m 2,5 km/h (1 Bft) N-NO 19 0 min 243 W/m 15,9 C 21,4 C 4,8 km/h (1 Bft)
19.08.2016 17:36 21,3 C 74 % 1008,6 hPa 0,0 l/m 2,7 km/h (1 Bft) NO 42 3 min 250 W/m 16,5 C 21,3 C 8,0 km/h (2 Bft)
19.08.2016 17:39 21,2 C 73 % 1008,6 hPa 0,0 l/m 1,4 km/h (1 Bft) N-NW 330 3 min 241 W/m 16,2 C 21,2 C 3,2 km/h (1 Bft)
19.08.2016 17:42 21,2 C 72 % 1008,6 hPa 0,0 l/m 4,0 km/h (1 Bft) NO 50 3 min 336 W/m 15,9 C 21,2 C 9,7 km/h (2 Bft)
19.08.2016 17:45 21,3 C 73 % 1008,6 hPa 0,0 l/m 3,6 km/h (1 Bft) N 355 3 min 431 W/m 16,3 C 21,3 C 9,7 km/h (2 Bft)
19.08.2016 17:48 21,3 C 74 % 1008,6 hPa 0,0 l/m 1,9 km/h (1 Bft) O 79 3 min 392 W/m 16,5 C 21,3 C 4,8 km/h (1 Bft)
19.08.2016 17:51 21,2 C 75 % 1008,6 hPa 0,0 l/m 3,2 km/h (1 Bft) N-NO 28 3 min 318 W/m 16,6 C 21,2 C 8,0 km/h (2 Bft)
19.08.2016 17:54 21,1 C 74 % 1008,6 hPa 0,0 l/m 2,7 km/h (1 Bft) N 355 3 min 404 W/m 16,3 C 21,1 C 8,0 km/h (2 Bft)
19.08.2016 17:57 21,0 C 74 % 1008,6 hPa 0,0 l/m 2,8 km/h (1 Bft) NO 47 3 min 362 W/m 16,2 C 21,0 C 4,8 km/h (1 Bft)
19.08.2016 18:00 21,1 C 73 % 1008,6 hPa 0,0 l/m 3,8 km/h (1 Bft) N 355 3 min 274 W/m 16,1 C 21,1 C 12,9 km/h (3 Bft)
19.08.2016 18:03 21,1 C 73 % 1008,7 hPa 0,0 l/m 3,4 km/h (1 Bft) O 90 0 min 86 W/m 16,1 C 21,1 C 8,0 km/h (2 Bft)
19.08.2016 18:06 21,0 C 73 % 1008,7 hPa 0,0 l/m 2,8 km/h (1 Bft) N 5 0 min 63 W/m 16,0 C 21,0 C 8,0 km/h (2 Bft)
19.08.2016 18:09 20,9 C 76 % 1008,8 hPa 0,0 l/m 1,4 km/h (1 Bft) N-NO 21 0 min 88 W/m 16,5 C 20,9 C 4,8 km/h (1 Bft)
19.08.2016 18:12 20,8 C 76 % 1008,8 hPa 0,0 l/m 1,6 km/h (1 Bft) O-SO 122 0 min 72 W/m 16,4 C 20,8 C 6,4 km/h (2 Bft)
19.08.2016 18:15 20,7 C 76 % 1008,8 hPa 0,0 l/m 3,6 km/h (1 Bft) N-NW 347 0 min 58 W/m 16,3 C 20,7 C 9,7 km/h (2 Bft)
19.08.2016 18:18 20,5 C 76 % 1008,7 hPa 0,0 l/m 3,1 km/h (1 Bft) N 355 0 min 62 W/m 16,1 C 20,5 C 6,4 km/h (2 Bft)
19.08.2016 18:21 20,4 C 74 % 1008,7 hPa 0,0 l/m 1,8 km/h (1 Bft) NO 54 0 min 70 W/m 15,6 C 20,4 C 4,8 km/h (1 Bft)
19.08.2016 18:24 20,4 C 75 % 1008,7 hPa 0,0 l/m 2,5 km/h (1 Bft) N-NO 28 0 min 67 W/m 15,8 C 20,4 C 4,8 km/h (1 Bft)
19.08.2016 18:27 20,4 C 74 % 1008,7 hPa 0,0 l/m 3,5 km/h (1 Bft) SO 138 0 min 74 W/m 15,6 C 20,4 C 6,4 km/h (2 Bft)
19.08.2016 18:30 20,6 C 74 % 1008,7 hPa 0,0 l/m 2,9 km/h (1 Bft) O 98 0 min 53 W/m 15,8 C 20,6 C 11,3 km/h (2 Bft)
19.08.2016 18:33 20,4 C 73 % 1008,7 hPa 0,0 l/m 4,1 km/h (1 Bft) O 101 0 min 62 W/m 15,4 C 20,4 C 11,3 km/h (2 Bft)
19.08.2016 18:36 20,3 C 73 % 1008,7 hPa 0,0 l/m 2,9 km/h (1 Bft) NO 34 0 min 65 W/m 15,3 C 20,3 C 9,7 km/h (2 Bft)
19.08.2016 18:39 20,3 C 74 % 1008,7 hPa 0,0 l/m 1,7 km/h (1 Bft) O 90 0 min 70 W/m 15,5 C 20,3 C 4,8 km/h (1 Bft)
19.08.2016 18:42 20,2 C 73 % 1008,7 hPa 0,0 l/m 2,5 km/h (1 Bft) N 9 0 min 72 W/m 15,2 C 20,2 C 4,8 km/h (1 Bft)
19.08.2016 18:45 20,2 C 73 % 1008,6 hPa 0,0 l/m 1,8 km/h (1 Bft) N 349 0 min 81 W/m 15,2 C 20,2 C 3,2 km/h (1 Bft)
19.08.2016 18:48 20,2 C 74 % 1008,6 hPa 0,0 l/m 1,8 km/h (1 Bft) N-NO 24 0 min 86 W/m 15,4 C 20,2 C 3,2 km/h (1 Bft)
19.08.2016 18:51 20,1 C 73 % 1008,6 hPa 0,0 l/m 1,9 km/h (1 Bft) O-NO 66 0 min 97 W/m 15,1 C 20,1 C 6,4 km/h (2 Bft)
19.08.2016 18:54 20,2 C 75 % 1008,6 hPa 0,0 l/m 3,0 km/h (1 Bft) O 90 0 min 91 W/m 15,6 C 20,2 C 8,0 km/h (2 Bft)
19.08.2016 18:57 20,1 C 74 % 1008,6 hPa 0,0 l/m 1,1 km/h (1 Bft) O 87 0 min 102 W/m 15,3 C 20,1 C 3,2 km/h (1 Bft)
19.08.2016 19:00 20,1 C 76 % 1008,7 hPa 0,0 l/m 1,7 km/h (1 Bft) NO 46 0 min 98 W/m 15,7 C 20,1 C 4,8 km/h (1 Bft)
19.08.2016 19:03 20,1 C 75 % 1008,7 hPa 0,0 l/m 1,2 km/h (1 Bft) O 80 0 min 81 W/m 15,5 C 20,1 C 4,8 km/h (1 Bft)
19.08.2016 19:06 20,1 C 76 % 1008,7 hPa 0,0 l/m 2,9 km/h (1 Bft) NO 42 0 min 74 W/m 15,7 C 20,1 C 12,9 km/h (3 Bft)
19.08.2016 19:09 19,9 C 76 % 1008,7 hPa 0,0 l/m 2,5 km/h (1 Bft) NO 38 0 min 63 W/m 15,5 C 19,9 C 6,4 km/h (2 Bft)
19.08.2016 19:12 19,8 C 75 % 1008,7 hPa 0,0 l/m 2,1 km/h (1 Bft) NO 46 0 min 56 W/m 15,2 C 19,8 C 6,4 km/h (2 Bft)
19.08.2016 19:15 19,8 C 77 % 1008,7 hPa 0,0 l/m 2,0 km/h (1 Bft) O 85 0 min 54 W/m 15,6 C 19,8 C 4,8 km/h (1 Bft)
19.08.2016 19:18 19,7 C 78 % 1008,7 hPa 0,0 l/m 1,0 km/h (0 Bft) NO 55 0 min 54 W/m 15,8 C 19,7 C 3,2 km/h (1 Bft)
19.08.2016 19:21 19,5 C 78 % 1008,7 hPa 0,0 l/m 2,8 km/h (1 Bft) O 84 0 min 53 W/m 15,6 C 19,5 C 8,0 km/h (2 Bft)
19.08.2016 19:24 19,4 C 79 % 1008,7 hPa 0,0 l/m 0,8 km/h (0 Bft) O-NO 74 0 min 62 W/m 15,7 C 19,4 C 3,2 km/h (1 Bft)
19.08.2016 19:27 19,3 C 79 % 1008,7 hPa 0,0 l/m 1,8 km/h (1 Bft) O 98 0 min 63 W/m 15,6 C 19,3 C 4,8 km/h (1 Bft)
19.08.2016 19:30 19,3 C 79 % 1008,7 hPa 0,0 l/m 1,5 km/h (1 Bft) NO 37 0 min 58 W/m 15,6 C 19,3 C 4,8 km/h (1 Bft)
19.08.2016 19:33 19,3 C 79 % 1008,7 hPa 0,0 l/m 2,6 km/h (1 Bft) O-NO 62 0 min 46 W/m 15,6 C 19,3 C 4,8 km/h (1 Bft)
19.08.2016 19:36 19,3 C 80 % 1008,7 hPa 0,0 l/m 1,4 km/h (1 Bft) O-NO 58 0 min 46 W/m 15,8 C 19,3 C 4,8 km/h (1 Bft)
19.08.2016 19:39 19,2 C 79 % 1008,7 hPa 0,0 l/m 2,3 km/h (1 Bft) NO 51 0 min 47 W/m 15,5 C 19,2 C 4,8 km/h (1 Bft)
19.08.2016 19:42 19,1 C 79 % 1008,7 hPa 0,0 l/m 1,6 km/h (1 Bft) O-NO 63 0 min 47 W/m 15,4 C 19,1 C 4,8 km/h (1 Bft)
19.08.2016 19:45 19,1 C 80 % 1008,7 hPa 0,0 l/m 1,5 km/h (1 Bft) O-SO 103 0 min 47 W/m 15,6 C 19,1 C 4,8 km/h (1 Bft)
19.08.2016 19:48 19,1 C 80 % 1008,7 hPa 0,0 l/m 1,2 km/h (1 Bft) O 86 0 min 47 W/m 15,6 C 19,1 C 4,8 km/h (1 Bft)
19.08.2016 19:51 19,0 C 80 % 1008,7 hPa 0,0 l/m 1,0 km/h (0 Bft) O 85 0 min 47 W/m 15,5 C 19,0 C 4,8 km/h (1 Bft)
19.08.2016 19:54 18,9 C 79 % 1008,7 hPa 0,0 l/m 1,4 km/h (1 Bft) NO 55 0 min 46 W/m 15,2 C 18,9 C 3,2 km/h (1 Bft)
19.08.2016 19:57 18,8 C 80 % 1008,6 hPa 0,0 l/m 1,8 km/h (1 Bft) O-NO 62 0 min 37 W/m 15,3 C 18,8 C 4,8 km/h (1 Bft)
19.08.2016 20:00 18,8 C 80 % 1008,7 hPa 0,0 l/m 1,1 km/h (1 Bft) O-NO 62 0 min 30 W/m 15,3 C 18,8 C 3,2 km/h (1 Bft)
19.08.2016 20:03 18,8 C 80 % 1008,7 hPa 0,0 l/m 1,3 km/h (1 Bft) N 9 0 min 21 W/m 15,3 C 18,8 C 3,2 km/h (1 Bft)
19.08.2016 20:06 18,7 C 80 % 1008,7 hPa 0,0 l/m 1,4 km/h (1 Bft) N-NO 13 0 min 16 W/m 15,2 C 18,7 C 3,2 km/h (1 Bft)
19.08.2016 20:09 18,6 C 80 % 1008,6 hPa 0,0 l/m 1,4 km/h (1 Bft) O-NO 76 0 min 11 W/m 15,1 C 18,6 C 6,4 km/h (2 Bft)
19.08.2016 20:12 18,5 C 81 % 1008,7 hPa 0,0 l/m 1,3 km/h (1 Bft) SO 133 0 min 11 W/m 15,2 C 18,5 C 4,8 km/h (1 Bft)
19.08.2016 20:15 18,4 C 81 % 1008,7 hPa 0,0 l/m 2,1 km/h (1 Bft) NO 43 0 min 9 W/m 15,1 C 18,4 C 4,8 km/h (1 Bft)
19.08.2016 20:18 18,3 C 82 % 1008,7 hPa 0,0 l/m 1,6 km/h (1 Bft) O 84 0 min 9 W/m 15,2 C 18,3 C 3,2 km/h (1 Bft)
19.08.2016 20:21 18,3 C 82 % 1008,7 hPa 0,0 l/m 1,5 km/h (1 Bft) O-NO 71 0 min 9 W/m 15,2 C 18,3 C 4,8 km/h (1 Bft)
19.08.2016 20:24 18,3 C 82 % 1008,8 hPa 0,0 l/m 0,7 km/h (0 Bft) O-NO 70 0 min 9 W/m 15,2 C 18,3 C 3,2 km/h (1 Bft)
19.08.2016 20:27 18,2 C 83 % 1008,8 hPa 0,0 l/m 0,9 km/h (0 Bft) NO 56 0 min 7 W/m 15,3 C 18,2 C 3,2 km/h (1 Bft)
19.08.2016 20:30 18,2 C 83 % 1008,8 hPa 0,0 l/m 1,7 km/h (1 Bft) N-NO 17 0 min 5 W/m 15,3 C 18,2 C 4,8 km/h (1 Bft)
19.08.2016 20:33 18,1 C 83 % 1008,7 hPa 0,0 l/m 1,8 km/h (1 Bft) NO 38 0 min 5 W/m 15,2 C 18,1 C 6,4 km/h (2 Bft)
19.08.2016 20:36 18,1 C 84 % 1008,7 hPa 0,0 l/m 1,8 km/h (1 Bft) NO 55 0 min 0 W/m 15,4 C 18,1 C 6,4 km/h (2 Bft)
19.08.2016 20:39 18,0 C 84 % 1008,7 hPa 0,0 l/m 1,6 km/h (1 Bft) O-NO 76 0 min 0 W/m 15,3 C 18,0 C 4,8 km/h (1 Bft)
19.08.2016 20:42 17,9 C 84 % 1008,7 hPa 0,0 l/m 1,2 km/h (1 Bft) O-NO 74 0 min 0 W/m 15,2 C 17,9 C 4,8 km/h (1 Bft)
19.08.2016 20:45 17,9 C 85 % 1008,7 hPa 0,0 l/m 1,6 km/h (1 Bft) O 83 0 min 0 W/m 15,3 C 17,9 C 3,2 km/h (1 Bft)
19.08.2016 20:48 17,9 C 85 % 1008,6 hPa 0,0 l/m 1,3 km/h (1 Bft) O 89 0 min 0 W/m 15,3 C 17,9 C 4,8 km/h (1 Bft)
19.08.2016 20:51 17,9 C 85 % 1008,7 hPa 0,0 l/m 1,8 km/h (1 Bft) O 79 0 min 0 W/m 15,3 C 17,9 C 4,8 km/h (1 Bft)
19.08.2016 20:54 17,9 C 85 % 1008,7 hPa 0,0 l/m 1,1 km/h (1 Bft) O 88 0 min 0 W/m 15,3 C 17,9 C 3,2 km/h (1 Bft)
19.08.2016 20:57 17,9 C 86 % 1008,7 hPa 0,0 l/m 2,1 km/h (1 Bft) O-SO 119 0 min 0 W/m 15,5 C 17,9 C 4,8 km/h (1 Bft)
19.08.2016 21:00 17,9 C 86 % 1008,7 hPa 0,0 l/m 0,8 km/h (0 Bft) O-SO 117 0 min 0 W/m 15,5 C 17,9 C 3,2 km/h (1 Bft)
19.08.2016 21:03 17,9 C 86 % 1008,7 hPa 0,0 l/m 0,9 km/h (0 Bft) O 96 0 min 0 W/m 15,5 C 17,9 C 3,2 km/h (1 Bft)
19.08.2016 21:06 17,9 C 86 % 1008,6 hPa 0,0 l/m 1,0 km/h (0 Bft) O-SO 108 0 min 0 W/m 15,5 C 17,9 C 3,2 km/h (1 Bft)
19.08.2016 21:09 17,8 C 87 % 1008,6 hPa 0,0 l/m 1,5 km/h (1 Bft) O 101 0 min 0 W/m 15,6 C 17,8 C 4,8 km/h (1 Bft)
19.08.2016 21:12 17,8 C 87 % 1008,6 hPa 0,0 l/m 1,7 km/h (1 Bft) O-NO 63 0 min 0 W/m 15,6 C 17,8 C 6,4 km/h (2 Bft)
19.08.2016 21:15 17,8 C 87 % 1008,6 hPa 0,0 l/m 1,5 km/h (1 Bft) O-NO 72 0 min 0 W/m 15,6 C 17,8 C 3,2 km/h (1 Bft)
19.08.2016 21:18 17,8 C 87 % 1008,6 hPa 0,0 l/m 0,9 km/h (0 Bft) O-NO 76 0 min 0 W/m 15,6 C 17,8 C 3,2 km/h (1 Bft)
19.08.2016 21:21 17,8 C 88 % 1008,6 hPa 0,0 l/m 1,2 km/h (1 Bft) W-NW 298 0 min 0 W/m 15,8 C 17,8 C 4,8 km/h (1 Bft)
19.08.2016 21:24 17,7 C 88 % 1008,5 hPa 0,0 l/m 1,4 km/h (1 Bft) W-NW 292 0 min 0 W/m 15,7 C 17,7 C 3,2 km/h (1 Bft)
19.08.2016 21:27 17,7 C 88 % 1008,5 hPa 0,0 l/m 1,2 km/h (1 Bft) W-SW 254 0 min 0 W/m 15,7 C 17,7 C 3,2 km/h (1 Bft)
19.08.2016 21:30 17,7 C 88 % 1008,5 hPa 0,0 l/m 1,8 km/h (1 Bft) O-NO 77 0 min 0 W/m 15,7 C 17,7 C 8,0 km/h (2 Bft)
19.08.2016 21:33 17,7 C 88 % 1008,4 hPa 0,0 l/m 1,9 km/h (1 Bft) O 88 0 min 0 W/m 15,7 C 17,7 C 6,4 km/h (2 Bft)
19.08.2016 21:36 17,6 C 89 % 1008,3 hPa 0,0 l/m 1,9 km/h (1 Bft) O-SO 109 0 min 0 W/m 15,8 C 17,6 C 4,8 km/h (1 Bft)
19.08.2016 21:39 17,6 C 89 % 1008,3 hPa 0,0 l/m 1,6 km/h (1 Bft) O-SO 113 0 min 0 W/m 15,8 C 17,6 C 6,4 km/h (2 Bft)
19.08.2016 21:42 17,6 C 89 % 1008,3 hPa 0,0 l/m 1,9 km/h (1 Bft) O-SO 103 0 min 0 W/m 15,8 C 17,6 C 6,4 km/h (2 Bft)
19.08.2016 21:45 17,7 C 88 % 1008,4 hPa 0,0 l/m 1,8 km/h (1 Bft) O-SO 107 0 min 0 W/m 15,7 C 17,7 C 4,8 km/h (1 Bft)
19.08.2016 21:48 17,7 C 88 % 1008,3 hPa 0,0 l/m 2,1 km/h (1 Bft) NO 49 0 min 0 W/m 15,7 C 17,7 C 4,8 km/h (1 Bft)
19.08.2016 21:51 17,7 C 88 % 1008,3 hPa 0,0 l/m 2,0 km/h (1 Bft) O-SO 111 0 min 0 W/m 15,7 C 17,7 C 6,4 km/h (2 Bft)
19.08.2016 21:54 17,7 C 88 % 1008,3 hPa 0,0 l/m 2,2 km/h (1 Bft) N-NO 19 0 min 0 W/m 15,7 C 17,7 C 4,8 km/h (1 Bft)
19.08.2016 21:57 17,7 C 88 % 1008,3 hPa 0,0 l/m 1,9 km/h (1 Bft) NO 52 0 min 0 W/m 15,7 C 17,7 C 4,8 km/h (1 Bft)
19.08.2016 22:00 17,6 C 87 % 1008,3 hPa 0,0 l/m 2,0 km/h (1 Bft) O 86 0 min 0 W/m 15,4 C 17,6 C 8,0 km/h (2 Bft)
19.08.2016 22:03 17,7 C 87 % 1008,2 hPa 0,0 l/m 2,7 km/h (1 Bft) NO 49 0 min 0 W/m 15,5 C 17,7 C 6,4 km/h (2 Bft)
19.08.2016 22:06 17,6 C 86 % 1008,2 hPa 0,0 l/m 1,8 km/h (1 Bft) NO 38 0 min 0 W/m 15,2 C 17,6 C 6,4 km/h (2 Bft)
19.08.2016 22:09 17,6 C 86 % 1008,2 hPa 0,0 l/m 2,6 km/h (1 Bft) O-NO 75 0 min 0 W/m 15,2 C 17,6 C 6,4 km/h (2 Bft)
19.08.2016 22:12 17,7 C 85 % 1008,2 hPa 0,0 l/m 1,3 km/h (1 Bft) O-NO 76 0 min 0 W/m 15,1 C 17,7 C 3,2 km/h (1 Bft)
19.08.2016 22:15 17,7 C 85 % 1008,2 hPa 0,0 l/m 2,2 km/h (1 Bft) O-NO 74 0 min 0 W/m 15,1 C 17,7 C 6,4 km/h (2 Bft)
19.08.2016 22:18 17,7 C 85 % 1008,2 hPa 0,0 l/m 2,0 km/h (1 Bft) O 88 0 min 0 W/m 15,1 C 17,7 C 4,8 km/h (1 Bft)
19.08.2016 22:21 17,7 C 84 % 1008,2 hPa 0,0 l/m 2,1 km/h (1 Bft) S 171 0 min 0 W/m 15,0 C 17,7 C 4,8 km/h (1 Bft)
19.08.2016 22:24 17,8 C 85 % 1008,2 hPa 0,0 l/m 2,2 km/h (1 Bft) S-SO 152 0 min 0 W/m 15,2 C 17,8 C 8,0 km/h (2 Bft)
19.08.2016 22:27 17,8 C 85 % 1008,2 hPa 0,0 l/m 1,1 km/h (1 Bft) SO 127 0 min 0 W/m 15,2 C 17,8 C 4,8 km/h (1 Bft)
19.08.2016 22:30 17,8 C 84 % 1008,2 hPa 0,0 l/m 1,2 km/h (1 Bft) SO 124 0 min 0 W/m 15,1 C 17,8 C 3,2 km/h (1 Bft)
19.08.2016 22:33 17,8 C 84 % 1008,2 hPa 0,0 l/m 3,2 km/h (1 Bft) O 91 0 min 0 W/m 15,1 C 17,8 C 9,7 km/h (2 Bft)
19.08.2016 22:36 17,8 C 83 % 1008,2 hPa 0,0 l/m 1,9 km/h (1 Bft) O-SO 120 0 min 0 W/m 14,9 C 17,8 C 4,8 km/h (1 Bft)
19.08.2016 22:39 17,8 C 83 % 1008,2 hPa 0,0 l/m 1,4 km/h (1 Bft) SO 144 0 min 0 W/m 14,9 C 17,8 C 4,8 km/h (1 Bft)
19.08.2016 22:42 17,9 C 83 % 1008,2 hPa 0,0 l/m 3,0 km/h (1 Bft) O-SO 113 0 min 0 W/m 15,0 C 17,9 C 9,7 km/h (2 Bft)
19.08.2016 22:45 17,9 C 83 % 1008,2 hPa 0,0 l/m 2,3 km/h (1 Bft) O-SO 122 0 min 0 W/m 15,0 C 17,9 C 8,0 km/h (2 Bft)
19.08.2016 22:48 17,9 C 83 % 1008,2 hPa 0,0 l/m 3,1 km/h (1 Bft) O 82 0 min 0 W/m 15,0 C 17,9 C 9,7 km/h (2 Bft)
19.08.2016 22:51 17,9 C 84 % 1008,3 hPa 0,0 l/m 2,3 km/h (1 Bft) O 96 0 min 0 W/m 15,2 C 17,9 C 4,8 km/h (1 Bft)
19.08.2016 22:54 17,9 C 84 % 1008,3 hPa 0,0 l/m 2,1 km/h (1 Bft) O-SO 117 0 min 0 W/m 15,2 C 17,9 C 4,8 km/h (1 Bft)
19.08.2016 22:57 17,9 C 84 % 1008,2 hPa 0,0 l/m 1,4 km/h (1 Bft) NO 39 0 min 0 W/m 15,2 C 17,9 C 3,2 km/h (1 Bft)
19.08.2016 23:00 17,9 C 84 % 1008,2 hPa 0,0 l/m 2,6 km/h (1 Bft) O 93 0 min 0 W/m 15,2 C 17,9 C 11,3 km/h (2 Bft)
19.08.2016 23:03 17,9 C 85 % 1008,3 hPa 0,0 l/m 0,9 km/h (0 Bft) O 82 0 min 0 W/m 15,3 C 17,9 C 4,8 km/h (1 Bft)
19.08.2016 23:06 17,9 C 85 % 1008,3 hPa 0,0 l/m 2,4 km/h (1 Bft) S-SO 155 0 min 0 W/m 15,3 C 17,9 C 6,4 km/h (2 Bft)
19.08.2016 23:09 18,0 C 85 % 1008,4 hPa 0,0 l/m 1,5 km/h (1 Bft) S-SO 154 0 min 0 W/m 15,4 C 18,0 C 3,2 km/h (1 Bft)
19.08.2016 23:12 18,0 C 85 % 1008,5 hPa 0,0 l/m 3,2 km/h (1 Bft) SO 125 0 min 0 W/m 15,4 C 18,0 C 12,9 km/h (3 Bft)
19.08.2016 23:15 18,0 C 85 % 1008,5 hPa 0,0 l/m 1,7 km/h (1 Bft) S 184 0 min 0 W/m 15,4 C 18,0 C 4,8 km/h (1 Bft)
19.08.2016 23:18 18,1 C 85 % 1008,6 hPa 0,0 l/m 3,8 km/h (1 Bft) S-SO 165 0 min 0 W/m 15,5 C 18,1 C 8,0 km/h (2 Bft)
19.08.2016 23:21 18,1 C 84 % 1008,7 hPa 0,0 l/m 3,2 km/h (1 Bft) S-SO 149 0 min 0 W/m 15,4 C 18,1 C 8,0 km/h (2 Bft)
19.08.2016 23:24 18,1 C 85 % 1008,6 hPa 0,0 l/m 1,6 km/h (1 Bft) O 84 0 min 0 W/m 15,5 C 18,1 C 3,2 km/h (1 Bft)
19.08.2016 23:27 18,0 C 86 % 1008,7 hPa 0,0 l/m 1,8 km/h (1 Bft) O 98 0 min 0 W/m 15,6 C 18,0 C 4,8 km/h (1 Bft)
19.08.2016 23:30 17,9 C 86 % 1008,7 hPa 0,0 l/m 1,8 km/h (1 Bft) O-SO 108 0 min 0 W/m 15,5 C 17,9 C 3,2 km/h (1 Bft)
19.08.2016 23:33 17,8 C 87 % 1008,8 hPa 0,0 l/m 2,6 km/h (1 Bft) SO 132 0 min 0 W/m 15,6 C 17,8 C 4,8 km/h (1 Bft)
19.08.2016 23:36 17,7 C 88 % 1008,8 hPa 0,0 l/m 1,7 km/h (1 Bft) SO 132 0 min 0 W/m 15,7 C 17,7 C 3,2 km/h (1 Bft)
19.08.2016 23:39 17,4 C 88 % 1008,7 hPa 0,2 l/m 2,1 km/h (1 Bft) SO 132 0 min 0 W/m 15,4 C 17,4 C 3,2 km/h (1 Bft)
19.08.2016 23:42 17,3 C 89 % 1008,6 hPa 0,0 l/m 2,3 km/h (1 Bft) O-SO 118 0 min 0 W/m 15,5 C 17,3 C 4,8 km/h (1 Bft)
19.08.2016 23:45 17,2 C 90 % 1008,6 hPa 0,0 l/m 2,6 km/h (1 Bft) SO 127 0 min 0 W/m 15,5 C 17,2 C 4,8 km/h (1 Bft)
19.08.2016 23:48 17,1 C 91 % 1008,6 hPa 0,0 l/m 2,1 km/h (1 Bft) SO 134 0 min 0 W/m 15,6 C 17,1 C 4,8 km/h (1 Bft)
19.08.2016 23:51 16,9 C 91 % 1008,6 hPa 0,0 l/m 1,3 km/h (1 Bft) SO 132 0 min 0 W/m 15,4 C 16,9 C 3,2 km/h (1 Bft)
19.08.2016 23:54 16,9 C 91 % 1008,5 hPa 0,0 l/m 0,5 km/h (0 Bft) SO 132 0 min 0 W/m 15,4 C 16,9 C 1,6 km/h (1 Bft)
19.08.2016 23:57 16,8 C 92 % 1008,5 hPa 0,0 l/m 0,8 km/h (0 Bft) SO 132 0 min 0 W/m 15,5 C 16,8 C 3,2 km/h (1 Bft)
_ Min-Zeit 04:24 15:30 22:03 - 00:00 - - - - 04:24 04:24 00:00
Minimum _ 10,8 C 62 % 1008,2 hPa - 0,0 km/h (0 Bft) - - - - 10,0 C 10,8 C 0,0 km/h (0 Bft)
_ Max-Zeit 15:27 04:15 08:15 23:39 17:03 - - 11:57 13:03 15:45 15:27 14:48
Maximum _ 23,1 C 96 % 1010,7 hPa 0,2 l/m 5,8 km/h
N (2 Bft)
- - 3 min 831 W/m 17,8 C 23,1 C 14,5 km/h
NO (3 Bft)
Durchschnitt _ 16,6 C 85 % 1009,8 hPa #0,2 l/m 1,7 km/h (1 Bft) NO - #5:12 h 259 W/m 13,8 C 16,6 C 4,3 km/h (1 Bft)
2016 Cux-Wetter.de -Die Nutzung der Wetterdaten nur mit ausdrcklicher Genehmigung